<?xml version="1.0" encoding="UTF-8" standalone="no" ?>
<gpx xmlns="http://www.topografix.com/GPX/1/1" xmlns:xsi="http://www.w3.org/2001/XMLSchema-instance" xsi:schemaLocation="http://www.topografix.com/GPX/1/1 http://www.topografix.com/GPX/1/1/gpx.xsd" version="1.1" creator="VisuGPX - https://www.visugpx.com">
  <metadata>
    <name>GR36 LACROUZETTE ARIFAT</name>
  </metadata>
  <trk>
    <name><![CDATA[GR36 De Marsal à Cambounès (Tarn) (2019)]]></name>
    <trkseg>
      <trkpt lat="43.93056" lon="2.28713">
        <ele>186.396</ele>
        <time>2016-06-10T07:29:40Z</time>
      </trkpt>
      <trkpt lat="43.93056" lon="2.28713">
        <ele>186.396</ele>
        <time>2016-06-10T07:29:40Z</time>
      </trkpt>
      <trkpt lat="43.93056" lon="2.28713">
        <ele>186.331</ele>
        <time>2016-06-10T07:29:40Z</time>
      </trkpt>
      <trkpt lat="43.93074" lon="2.28792">
        <ele>187.224</ele>
        <time>2016-06-10T07:30:00Z</time>
      </trkpt>
      <trkpt lat="43.93135" lon="2.28904">
        <ele>189.308</ele>
        <time>2016-06-10T07:30:20Z</time>
      </trkpt>
      <trkpt lat="43.93272" lon="2.29007">
        <ele>188.743</ele>
        <time>2016-06-10T07:30:40Z</time>
      </trkpt>
      <trkpt lat="43.93332" lon="2.29075">
        <ele>191.182</ele>
        <time>2016-06-10T07:31:00Z</time>
      </trkpt>
      <trkpt lat="43.93422" lon="2.29101">
        <ele>190.369</ele>
        <time>2016-06-10T07:31:20Z</time>
      </trkpt>
      <trkpt lat="43.93453" lon="2.29155">
        <ele>194.564</ele>
        <time>2016-06-10T07:31:40Z</time>
      </trkpt>
      <trkpt lat="43.93709" lon="2.29232">
        <ele>198.79</ele>
        <time>2016-06-10T07:32:00Z</time>
      </trkpt>
      <trkpt lat="43.93955" lon="2.2935">
        <ele>216.897</ele>
        <time>2016-06-10T07:32:20Z</time>
      </trkpt>
      <trkpt lat="43.93978" lon="2.29382">
        <ele>222.15</ele>
        <time>2016-06-10T07:32:40Z</time>
      </trkpt>
      <trkpt lat="43.93818" lon="2.29393">
        <ele>244.042</ele>
        <time>2016-06-10T07:33:00Z</time>
      </trkpt>
      <trkpt lat="43.93659" lon="2.29474">
        <ele>264.411</ele>
        <time>2016-06-10T07:33:20Z</time>
      </trkpt>
      <trkpt lat="43.93623" lon="2.29532">
        <ele>280.321</ele>
        <time>2016-06-10T07:33:40Z</time>
      </trkpt>
      <trkpt lat="43.93502" lon="2.29554">
        <ele>295.603</ele>
        <time>2016-06-10T07:34:00Z</time>
      </trkpt>
      <trkpt lat="43.93396" lon="2.29625">
        <ele>288.308</ele>
        <time>2016-06-10T07:34:20Z</time>
      </trkpt>
      <trkpt lat="43.93286" lon="2.29622">
        <ele>295.265</ele>
        <time>2016-06-10T07:34:40Z</time>
      </trkpt>
      <trkpt lat="43.93237" lon="2.29588">
        <ele>307.014</ele>
        <time>2016-06-10T07:35:00Z</time>
      </trkpt>
      <trkpt lat="43.93226" lon="2.29622">
        <ele>311.951</ele>
        <time>2016-06-10T07:35:20Z</time>
      </trkpt>
      <trkpt lat="43.93145" lon="2.29592">
        <ele>321.996</ele>
        <time>2016-06-10T07:35:40Z</time>
      </trkpt>
      <trkpt lat="43.93102" lon="2.29672">
        <ele>330.792</ele>
        <time>2016-06-10T07:36:00Z</time>
      </trkpt>
      <trkpt lat="43.92924" lon="2.29773">
        <ele>350.159</ele>
        <time>2016-06-10T07:36:20Z</time>
      </trkpt>
      <trkpt lat="43.92853" lon="2.29775">
        <ele>352.412</ele>
        <time>2016-06-10T07:36:40Z</time>
      </trkpt>
      <trkpt lat="43.92756" lon="2.29734">
        <ele>359.894</ele>
        <time>2016-06-10T07:37:00Z</time>
      </trkpt>
      <trkpt lat="43.92653" lon="2.29727">
        <ele>355.066</ele>
        <time>2016-06-10T07:37:20Z</time>
      </trkpt>
      <trkpt lat="43.92691" lon="2.29886">
        <ele>355.229</ele>
        <time>2016-06-10T07:37:40Z</time>
      </trkpt>
      <trkpt lat="43.92693" lon="2.29987">
        <ele>357.321</ele>
        <time>2016-06-10T07:38:00Z</time>
      </trkpt>
      <trkpt lat="43.92693" lon="2.29987">
        <ele>357.308</ele>
        <time>2016-06-10T07:38:20Z</time>
      </trkpt>
      <trkpt lat="43.92745" lon="2.30049">
        <ele>358.07</ele>
        <time>2016-06-10T07:38:40Z</time>
      </trkpt>
      <trkpt lat="43.92773" lon="2.30139">
        <ele>349.759</ele>
        <time>2016-06-10T07:39:00Z</time>
      </trkpt>
      <trkpt lat="43.92793" lon="2.30159">
        <ele>349.616</ele>
        <time>2016-06-10T07:39:20Z</time>
      </trkpt>
      <trkpt lat="43.92866" lon="2.30131">
        <ele>350.961</ele>
        <time>2016-06-10T07:39:40Z</time>
      </trkpt>
      <trkpt lat="43.9289" lon="2.30277">
        <ele>306.227</ele>
        <time>2016-06-10T07:40:00Z</time>
      </trkpt>
      <trkpt lat="43.92818" lon="2.30345">
        <ele>299.434</ele>
        <time>2016-06-10T07:40:20Z</time>
      </trkpt>
      <trkpt lat="43.92764" lon="2.30367">
        <ele>287.377</ele>
        <time>2016-06-10T07:40:40Z</time>
      </trkpt>
      <trkpt lat="43.92764" lon="2.30386">
        <ele>281.729</ele>
        <time>2016-06-10T07:41:00Z</time>
      </trkpt>
      <trkpt lat="43.92816" lon="2.30391">
        <ele>281.591</ele>
        <time>2016-06-10T07:41:20Z</time>
      </trkpt>
      <trkpt lat="43.92841" lon="2.30414">
        <ele>269.181</ele>
        <time>2016-06-10T07:41:40Z</time>
      </trkpt>
      <trkpt lat="43.92994" lon="2.30457">
        <ele>230.819</ele>
        <time>2016-06-10T07:42:00Z</time>
      </trkpt>
      <trkpt lat="43.9305" lon="2.30453">
        <ele>223.608</ele>
        <time>2016-06-10T07:42:20Z</time>
      </trkpt>
      <trkpt lat="43.93076" lon="2.30384">
        <ele>220.193</ele>
        <time>2016-06-10T07:42:40Z</time>
      </trkpt>
      <trkpt lat="43.93107" lon="2.3032">
        <ele>214.652</ele>
        <time>2016-06-10T07:43:00Z</time>
      </trkpt>
      <trkpt lat="43.9311" lon="2.3038">
        <ele>207.169</ele>
        <time>2016-06-10T07:43:20Z</time>
      </trkpt>
      <trkpt lat="43.93139" lon="2.30541">
        <ele>189.044</ele>
        <time>2016-06-10T07:43:40Z</time>
      </trkpt>
      <trkpt lat="43.93183" lon="2.31137">
        <ele>192.55</ele>
        <time>2016-06-10T07:44:00Z</time>
      </trkpt>
      <trkpt lat="43.93145" lon="2.31187">
        <ele>192.837</ele>
        <time>2016-06-10T07:44:20Z</time>
      </trkpt>
      <trkpt lat="43.93181" lon="2.31558">
        <ele>199.07</ele>
        <time>2016-06-10T07:44:40Z</time>
      </trkpt>
      <trkpt lat="43.93145" lon="2.31594">
        <ele>205.152</ele>
        <time>2016-06-10T07:45:00Z</time>
      </trkpt>
      <trkpt lat="43.93116" lon="2.31751">
        <ele>223.073</ele>
        <time>2016-06-10T07:45:20Z</time>
      </trkpt>
      <trkpt lat="43.93088" lon="2.31805">
        <ele>234.585</ele>
        <time>2016-06-10T07:45:40Z</time>
      </trkpt>
      <trkpt lat="43.93098" lon="2.31912">
        <ele>241.013</ele>
        <time>2016-06-10T07:46:00Z</time>
      </trkpt>
      <trkpt lat="43.93098" lon="2.31991">
        <ele>244.408</ele>
        <time>2016-06-10T07:46:20Z</time>
      </trkpt>
      <trkpt lat="43.93068" lon="2.32011">
        <ele>254.331</ele>
        <time>2016-06-10T07:46:40Z</time>
      </trkpt>
      <trkpt lat="43.93068" lon="2.31953">
        <ele>254.88</ele>
        <time>2016-06-10T07:47:00Z</time>
      </trkpt>
      <trkpt lat="43.9305" lon="2.31985">
        <ele>261.017</ele>
        <time>2016-06-10T07:47:20Z</time>
      </trkpt>
      <trkpt lat="43.92983" lon="2.31985">
        <ele>276.112</ele>
        <time>2016-06-10T07:47:40Z</time>
      </trkpt>
      <trkpt lat="43.92983" lon="2.32126">
        <ele>298.268</ele>
        <time>2016-06-10T07:48:00Z</time>
      </trkpt>
      <trkpt lat="43.92923" lon="2.32069">
        <ele>304.825</ele>
        <time>2016-06-10T07:48:20Z</time>
      </trkpt>
      <trkpt lat="43.92904" lon="2.32004">
        <ele>302.668</ele>
        <time>2016-06-10T07:48:40Z</time>
      </trkpt>
      <trkpt lat="43.92883" lon="2.31968">
        <ele>309.89</ele>
        <time>2016-06-10T07:49:00Z</time>
      </trkpt>
      <trkpt lat="43.92895" lon="2.31875">
        <ele>311.311</ele>
        <time>2016-06-10T07:49:20Z</time>
      </trkpt>
      <trkpt lat="43.92884" lon="2.31809">
        <ele>313.621</ele>
        <time>2016-06-10T07:49:40Z</time>
      </trkpt>
      <trkpt lat="43.92838" lon="2.3182">
        <ele>319.403</ele>
        <time>2016-06-10T07:50:00Z</time>
      </trkpt>
      <trkpt lat="43.92819" lon="2.31899">
        <ele>330.708</ele>
        <time>2016-06-10T07:50:20Z</time>
      </trkpt>
      <trkpt lat="43.92767" lon="2.31991">
        <ele>348.035</ele>
        <time>2016-06-10T07:50:40Z</time>
      </trkpt>
      <trkpt lat="43.92759" lon="2.32045">
        <ele>358.414</ele>
        <time>2016-06-10T07:51:00Z</time>
      </trkpt>
      <trkpt lat="43.92765" lon="2.32178">
        <ele>374.681</ele>
        <time>2016-06-10T07:51:20Z</time>
      </trkpt>
      <trkpt lat="43.92742" lon="2.32264">
        <ele>381.876</ele>
        <time>2016-06-10T07:51:40Z</time>
      </trkpt>
      <trkpt lat="43.92745" lon="2.32423">
        <ele>384.492</ele>
        <time>2016-06-10T07:52:00Z</time>
      </trkpt>
      <trkpt lat="43.92734" lon="2.32528">
        <ele>385.629</ele>
        <time>2016-06-10T07:52:20Z</time>
      </trkpt>
      <trkpt lat="43.927" lon="2.32594">
        <ele>388.792</ele>
        <time>2016-06-10T07:52:40Z</time>
      </trkpt>
      <trkpt lat="43.9258" lon="2.33079">
        <ele>391.724</ele>
        <time>2016-06-10T07:53:00Z</time>
      </trkpt>
      <trkpt lat="43.9252" lon="2.3321">
        <ele>385.539</ele>
        <time>2016-06-10T07:53:20Z</time>
      </trkpt>
      <trkpt lat="43.92524" lon="2.33341">
        <ele>383.601</ele>
        <time>2016-06-10T07:53:40Z</time>
      </trkpt>
      <trkpt lat="43.9252" lon="2.33453">
        <ele>385.121</ele>
        <time>2016-06-10T07:54:00Z</time>
      </trkpt>
      <trkpt lat="43.92552" lon="2.33515">
        <ele>382.208</ele>
        <time>2016-06-10T07:54:20Z</time>
      </trkpt>
      <trkpt lat="43.9269" lon="2.33562">
        <ele>363.757</ele>
        <time>2016-06-10T07:54:40Z</time>
      </trkpt>
      <trkpt lat="43.9275" lon="2.33624">
        <ele>361.816</ele>
        <time>2016-06-10T07:55:00Z</time>
      </trkpt>
      <trkpt lat="43.92815" lon="2.33663">
        <ele>353.833</ele>
        <time>2016-06-10T07:55:20Z</time>
      </trkpt>
      <trkpt lat="43.92793" lon="2.33757">
        <ele>349.988</ele>
        <time>2016-06-10T07:55:40Z</time>
      </trkpt>
      <trkpt lat="43.9271" lon="2.33802">
        <ele>352.364</ele>
        <time>2016-06-10T07:56:00Z</time>
      </trkpt>
      <trkpt lat="43.9271" lon="2.33802">
        <ele>352.321</ele>
        <time>2016-06-10T07:56:20Z</time>
      </trkpt>
      <trkpt lat="43.92707" lon="2.3385">
        <ele>344.194</ele>
        <time>2016-06-10T07:56:40Z</time>
      </trkpt>
      <trkpt lat="43.92734" lon="2.33843">
        <ele>340.246</ele>
        <time>2016-06-10T07:57:00Z</time>
      </trkpt>
      <trkpt lat="43.92702" lon="2.33929">
        <ele>338.558</ele>
        <time>2016-06-10T07:57:20Z</time>
      </trkpt>
      <trkpt lat="43.92764" lon="2.3406">
        <ele>330.452</ele>
        <time>2016-06-10T07:57:40Z</time>
      </trkpt>
      <trkpt lat="43.92781" lon="2.34128">
        <ele>327.817</ele>
        <time>2016-06-10T07:58:00Z</time>
      </trkpt>
      <trkpt lat="43.92911" lon="2.34139">
        <ele>301.608</ele>
        <time>2016-06-10T07:58:20Z</time>
      </trkpt>
      <trkpt lat="43.92951" lon="2.34189">
        <ele>297.579</ele>
        <time>2016-06-10T07:58:40Z</time>
      </trkpt>
      <trkpt lat="43.92912" lon="2.34347">
        <ele>287.958</ele>
        <time>2016-06-10T07:59:00Z</time>
      </trkpt>
      <trkpt lat="43.92968" lon="2.34461">
        <ele>273.865</ele>
        <time>2016-06-10T07:59:20Z</time>
      </trkpt>
      <trkpt lat="43.93059" lon="2.34558">
        <ele>246.77</ele>
        <time>2016-06-10T07:59:40Z</time>
      </trkpt>
      <trkpt lat="43.93059" lon="2.34558">
        <ele>246.736</ele>
        <time>2016-06-10T08:00:00Z</time>
      </trkpt>
      <trkpt lat="43.9317" lon="2.3477">
        <ele>226.473</ele>
        <time>2016-06-10T08:00:20Z</time>
      </trkpt>
      <trkpt lat="43.93209" lon="2.34794">
        <ele>218.446</ele>
        <time>2016-06-10T08:00:40Z</time>
      </trkpt>
      <trkpt lat="43.93261" lon="2.34879">
        <ele>202.128</ele>
        <time>2016-06-10T08:01:00Z</time>
      </trkpt>
      <trkpt lat="43.93235" lon="2.34918">
        <ele>210.099</ele>
        <time>2016-06-10T08:01:20Z</time>
      </trkpt>
      <trkpt lat="43.93286" lon="2.34912">
        <ele>209.207</ele>
        <time>2016-06-10T08:01:40Z</time>
      </trkpt>
      <trkpt lat="43.93308" lon="2.34929">
        <ele>208.327</ele>
        <time>2016-06-10T08:02:00Z</time>
      </trkpt>
      <trkpt lat="43.93345" lon="2.35156">
        <ele>230.508</ele>
        <time>2016-06-10T08:02:20Z</time>
      </trkpt>
      <trkpt lat="43.93373" lon="2.35184">
        <ele>230.953</ele>
        <time>2016-06-10T08:02:40Z</time>
      </trkpt>
      <trkpt lat="43.9341" lon="2.35195">
        <ele>232.182</ele>
        <time>2016-06-10T08:03:00Z</time>
      </trkpt>
      <trkpt lat="43.93462" lon="2.35255">
        <ele>234.199</ele>
        <time>2016-06-10T08:03:20Z</time>
      </trkpt>
      <trkpt lat="43.93385" lon="2.35358">
        <ele>248.794</ele>
        <time>2016-06-10T08:03:40Z</time>
      </trkpt>
      <trkpt lat="43.93416" lon="2.35392">
        <ele>249.12</ele>
        <time>2016-06-10T08:04:00Z</time>
      </trkpt>
      <trkpt lat="43.93502" lon="2.35416">
        <ele>251.827</ele>
        <time>2016-06-10T08:04:20Z</time>
      </trkpt>
      <trkpt lat="43.93584" lon="2.35459">
        <ele>254.41</ele>
        <time>2016-06-10T08:04:40Z</time>
      </trkpt>
      <trkpt lat="43.93637" lon="2.3548">
        <ele>242.332</ele>
        <time>2016-06-10T08:05:00Z</time>
      </trkpt>
      <trkpt lat="43.93683" lon="2.35562">
        <ele>239.312</ele>
        <time>2016-06-10T08:05:20Z</time>
      </trkpt>
      <trkpt lat="43.93702" lon="2.356">
        <ele>241.832</ele>
        <time>2016-06-10T08:05:40Z</time>
      </trkpt>
      <trkpt lat="43.93818" lon="2.35615">
        <ele>212.605</ele>
        <time>2016-06-10T08:06:00Z</time>
      </trkpt>
      <trkpt lat="43.93879" lon="2.35661">
        <ele>200.508</ele>
        <time>2016-06-10T08:06:20Z</time>
      </trkpt>
      <trkpt lat="43.93883" lon="2.3571">
        <ele>204.545</ele>
        <time>2016-06-10T08:06:40Z</time>
      </trkpt>
      <trkpt lat="43.93853" lon="2.35706">
        <ele>211.514</ele>
        <time>2016-06-10T08:07:00Z</time>
      </trkpt>
      <trkpt lat="43.93835" lon="2.35725">
        <ele>215.551</ele>
        <time>2016-06-10T08:07:20Z</time>
      </trkpt>
      <trkpt lat="43.93836" lon="2.35755">
        <ele>214.066</ele>
        <time>2016-06-10T08:07:40Z</time>
      </trkpt>
      <trkpt lat="43.93853" lon="2.35776">
        <ele>216.492</ele>
        <time>2016-06-10T08:08:00Z</time>
      </trkpt>
      <trkpt lat="43.93807" lon="2.35839">
        <ele>230.829</ele>
        <time>2016-06-10T08:08:20Z</time>
      </trkpt>
      <trkpt lat="43.93719" lon="2.35897">
        <ele>248.762</ele>
        <time>2016-06-10T08:08:40Z</time>
      </trkpt>
      <trkpt lat="43.93594" lon="2.35918">
        <ele>267.874</ele>
        <time>2016-06-10T08:09:00Z</time>
      </trkpt>
      <trkpt lat="43.93631" lon="2.35974">
        <ele>278.139</ele>
        <time>2016-06-10T08:09:20Z</time>
      </trkpt>
      <trkpt lat="43.93628" lon="2.35995">
        <ele>281.001</ele>
        <time>2016-06-10T08:09:40Z</time>
      </trkpt>
      <trkpt lat="43.93561" lon="2.36004">
        <ele>291.521</ele>
        <time>2016-06-10T08:10:00Z</time>
      </trkpt>
      <trkpt lat="43.93526" lon="2.35987">
        <ele>294.508</ele>
        <time>2016-06-10T08:10:20Z</time>
      </trkpt>
      <trkpt lat="43.93506" lon="2.35995">
        <ele>300.047</ele>
        <time>2016-06-10T08:10:40Z</time>
      </trkpt>
      <trkpt lat="43.93523" lon="2.3603">
        <ele>304.326</ele>
        <time>2016-06-10T08:11:00Z</time>
      </trkpt>
      <trkpt lat="43.93417" lon="2.36068">
        <ele>332.663</ele>
        <time>2016-06-10T08:11:20Z</time>
      </trkpt>
      <trkpt lat="43.93314" lon="2.3607">
        <ele>357.088</ele>
        <time>2016-06-10T08:11:40Z</time>
      </trkpt>
      <trkpt lat="43.93258" lon="2.36051">
        <ele>366.574</ele>
        <time>2016-06-10T08:12:00Z</time>
      </trkpt>
      <trkpt lat="43.93175" lon="2.36079">
        <ele>384.871</ele>
        <time>2016-06-10T08:12:20Z</time>
      </trkpt>
      <trkpt lat="43.93082" lon="2.36081">
        <ele>396.634</ele>
        <time>2016-06-10T08:12:40Z</time>
      </trkpt>
      <trkpt lat="43.93045" lon="2.361">
        <ele>402.086</ele>
        <time>2016-06-10T08:13:00Z</time>
      </trkpt>
      <trkpt lat="43.92997" lon="2.36085">
        <ele>407.896</ele>
        <time>2016-06-10T08:13:20Z</time>
      </trkpt>
      <trkpt lat="43.92958" lon="2.36015">
        <ele>415.531</ele>
        <time>2016-06-10T08:13:40Z</time>
      </trkpt>
      <trkpt lat="43.92938" lon="2.35933">
        <ele>421.724</ele>
        <time>2016-06-10T08:14:00Z</time>
      </trkpt>
      <trkpt lat="43.92894" lon="2.35927">
        <ele>423.208</ele>
        <time>2016-06-10T08:14:20Z</time>
      </trkpt>
      <trkpt lat="43.92654" lon="2.35944">
        <ele>426.643</ele>
        <time>2016-06-10T08:14:40Z</time>
      </trkpt>
      <trkpt lat="43.92722" lon="2.3609">
        <ele>425.512</ele>
        <time>2016-06-10T08:15:00Z</time>
      </trkpt>
      <trkpt lat="43.92789" lon="2.36171">
        <ele>429.149</ele>
        <time>2016-06-10T08:15:20Z</time>
      </trkpt>
      <trkpt lat="43.9289" lon="2.36251">
        <ele>429.054</ele>
        <time>2016-06-10T08:15:40Z</time>
      </trkpt>
      <trkpt lat="43.92974" lon="2.3639">
        <ele>428.58</ele>
        <time>2016-06-10T08:16:00Z</time>
      </trkpt>
      <trkpt lat="43.92994" lon="2.36461">
        <ele>422.147</ele>
        <time>2016-06-10T08:16:20Z</time>
      </trkpt>
      <trkpt lat="43.93047" lon="2.36515">
        <ele>414.04</ele>
        <time>2016-06-10T08:16:40Z</time>
      </trkpt>
      <trkpt lat="43.93138" lon="2.36581">
        <ele>404.032</ele>
        <time>2016-06-10T08:17:00Z</time>
      </trkpt>
      <trkpt lat="43.93181" lon="2.36652">
        <ele>393.191</ele>
        <time>2016-06-10T08:17:20Z</time>
      </trkpt>
      <trkpt lat="43.93209" lon="2.36748">
        <ele>383.881</ele>
        <time>2016-06-10T08:17:40Z</time>
      </trkpt>
      <trkpt lat="43.93209" lon="2.36748">
        <ele>383.819</ele>
        <time>2016-06-10T08:18:00Z</time>
      </trkpt>
      <trkpt lat="43.9345" lon="2.36929">
        <ele>361.508</ele>
        <time>2016-06-10T08:18:20Z</time>
      </trkpt>
      <trkpt lat="43.93578" lon="2.37152">
        <ele>354.683</ele>
        <time>2016-06-10T08:18:40Z</time>
      </trkpt>
      <trkpt lat="43.93611" lon="2.3715">
        <ele>356.442</ele>
        <time>2016-06-10T08:19:00Z</time>
      </trkpt>
      <trkpt lat="43.93642" lon="2.37225">
        <ele>363.549</ele>
        <time>2016-06-10T08:19:20Z</time>
      </trkpt>
      <trkpt lat="43.93869" lon="2.37195">
        <ele>380.164</ele>
        <time>2016-06-10T08:19:40Z</time>
      </trkpt>
      <trkpt lat="43.93947" lon="2.3719">
        <ele>387.59</ele>
        <time>2016-06-10T08:20:00Z</time>
      </trkpt>
      <trkpt lat="43.94031" lon="2.37165">
        <ele>392.247</ele>
        <time>2016-06-10T08:20:20Z</time>
      </trkpt>
      <trkpt lat="43.94066" lon="2.37214">
        <ele>398.02</ele>
        <time>2016-06-10T08:20:40Z</time>
      </trkpt>
      <trkpt lat="43.94094" lon="2.37244">
        <ele>395.212</ele>
        <time>2016-06-10T08:21:00Z</time>
      </trkpt>
      <trkpt lat="43.94097" lon="2.37392">
        <ele>406.745</ele>
        <time>2016-06-10T08:21:20Z</time>
      </trkpt>
      <trkpt lat="43.94122" lon="2.37354">
        <ele>395.747</ele>
        <time>2016-06-10T08:21:40Z</time>
      </trkpt>
      <trkpt lat="43.94142" lon="2.37405">
        <ele>386.311</ele>
        <time>2016-06-10T08:22:00Z</time>
      </trkpt>
      <trkpt lat="43.94164" lon="2.37435">
        <ele>377.308</ele>
        <time>2016-06-10T08:22:20Z</time>
      </trkpt>
      <trkpt lat="43.94164" lon="2.37435">
        <ele>377.328</ele>
        <time>2016-06-10T08:22:40Z</time>
      </trkpt>
      <trkpt lat="43.94221" lon="2.37504">
        <ele>350.287</ele>
        <time>2016-06-10T08:23:00Z</time>
      </trkpt>
      <trkpt lat="43.94261" lon="2.37594">
        <ele>302.134</ele>
        <time>2016-06-10T08:23:20Z</time>
      </trkpt>
      <trkpt lat="43.94272" lon="2.37684">
        <ele>298.569</ele>
        <time>2016-06-10T08:23:40Z</time>
      </trkpt>
      <trkpt lat="43.94317" lon="2.37693">
        <ele>278.665</ele>
        <time>2016-06-10T08:24:00Z</time>
      </trkpt>
      <trkpt lat="43.94328" lon="2.37705">
        <ele>271.932</ele>
        <time>2016-06-10T08:24:20Z</time>
      </trkpt>
      <trkpt lat="43.94352" lon="2.37673">
        <ele>260.815</ele>
        <time>2016-06-10T08:24:40Z</time>
      </trkpt>
      <trkpt lat="43.94383" lon="2.3768">
        <ele>240.477</ele>
        <time>2016-06-10T08:25:00Z</time>
      </trkpt>
      <trkpt lat="43.94419" lon="2.37667">
        <ele>204.125</ele>
        <time>2016-06-10T08:25:20Z</time>
      </trkpt>
      <trkpt lat="43.94477" lon="2.37781">
        <ele>203.926</ele>
        <time>2016-06-10T08:25:40Z</time>
      </trkpt>
      <trkpt lat="43.94437" lon="2.37815">
        <ele>203.008</ele>
        <time>2016-06-10T08:26:00Z</time>
      </trkpt>
      <trkpt lat="43.94371" lon="2.37789">
        <ele>213.408</ele>
        <time>2016-06-10T08:26:20Z</time>
      </trkpt>
      <trkpt lat="43.94256" lon="2.37905">
        <ele>205.696</ele>
        <time>2016-06-10T08:26:40Z</time>
      </trkpt>
      <trkpt lat="43.94198" lon="2.38023">
        <ele>205.255</ele>
        <time>2016-06-10T08:27:00Z</time>
      </trkpt>
      <trkpt lat="43.94136" lon="2.38227">
        <ele>205.392</ele>
        <time>2016-06-10T08:27:20Z</time>
      </trkpt>
      <trkpt lat="43.94113" lon="2.38379">
        <ele>200.017</ele>
        <time>2016-06-10T08:27:40Z</time>
      </trkpt>
      <trkpt lat="43.94117" lon="2.3821">
        <ele>210.933</ele>
        <time>2016-06-10T08:28:00Z</time>
      </trkpt>
      <trkpt lat="43.94091" lon="2.38242">
        <ele>214.83</ele>
        <time>2016-06-10T08:28:20Z</time>
      </trkpt>
      <trkpt lat="43.94073" lon="2.38334">
        <ele>211.143</ele>
        <time>2016-06-10T08:28:40Z</time>
      </trkpt>
      <trkpt lat="43.94005" lon="2.38487">
        <ele>203.485</ele>
        <time>2016-06-10T08:29:00Z</time>
      </trkpt>
      <trkpt lat="43.94022" lon="2.38536">
        <ele>201.969</ele>
        <time>2016-06-10T08:29:20Z</time>
      </trkpt>
      <trkpt lat="43.93988" lon="2.386">
        <ele>214.204</ele>
        <time>2016-06-10T08:29:40Z</time>
      </trkpt>
      <trkpt lat="43.93909" lon="2.38579">
        <ele>215.824</ele>
        <time>2016-06-10T08:30:00Z</time>
      </trkpt>
      <trkpt lat="43.93714" lon="2.38467">
        <ele>242.508</ele>
        <time>2016-06-10T08:30:20Z</time>
      </trkpt>
      <trkpt lat="43.93628" lon="2.38461">
        <ele>266.22</ele>
        <time>2016-06-10T08:30:40Z</time>
      </trkpt>
      <trkpt lat="43.93581" lon="2.38414">
        <ele>271.059</ele>
        <time>2016-06-10T08:31:00Z</time>
      </trkpt>
      <trkpt lat="43.9349" lon="2.38298">
        <ele>297.336</ele>
        <time>2016-06-10T08:31:20Z</time>
      </trkpt>
      <trkpt lat="43.93479" lon="2.38358">
        <ele>307.241</ele>
        <time>2016-06-10T08:31:40Z</time>
      </trkpt>
      <trkpt lat="43.93342" lon="2.38351">
        <ele>288.467</ele>
        <time>2016-06-10T08:32:00Z</time>
      </trkpt>
      <trkpt lat="43.93213" lon="2.38476">
        <ele>296.914</ele>
        <time>2016-06-10T08:32:20Z</time>
      </trkpt>
      <trkpt lat="43.93218" lon="2.38544">
        <ele>301.447</ele>
        <time>2016-06-10T08:32:40Z</time>
      </trkpt>
      <trkpt lat="43.93175" lon="2.3877">
        <ele>333.329</ele>
        <time>2016-06-10T08:33:00Z</time>
      </trkpt>
      <trkpt lat="43.93142" lon="2.38813">
        <ele>348.496</ele>
        <time>2016-06-10T08:33:20Z</time>
      </trkpt>
      <trkpt lat="43.93085" lon="2.38738">
        <ele>358.231</ele>
        <time>2016-06-10T08:33:40Z</time>
      </trkpt>
      <trkpt lat="43.93014" lon="2.38723">
        <ele>364.624</ele>
        <time>2016-06-10T08:34:00Z</time>
      </trkpt>
      <trkpt lat="43.9292" lon="2.38783">
        <ele>388.808</ele>
        <time>2016-06-10T08:34:20Z</time>
      </trkpt>
      <trkpt lat="43.92858" lon="2.38768">
        <ele>392.533</ele>
        <time>2016-06-10T08:34:40Z</time>
      </trkpt>
      <trkpt lat="43.92792" lon="2.38793">
        <ele>411.522</ele>
        <time>2016-06-10T08:35:00Z</time>
      </trkpt>
      <trkpt lat="43.92575" lon="2.38793">
        <ele>449.639</ele>
        <time>2016-06-10T08:35:20Z</time>
      </trkpt>
      <trkpt lat="43.92475" lon="2.38815">
        <ele>456.424</ele>
        <time>2016-06-10T08:35:40Z</time>
      </trkpt>
      <trkpt lat="43.92398" lon="2.38918">
        <ele>462.13</ele>
        <time>2016-06-10T08:36:00Z</time>
      </trkpt>
      <trkpt lat="43.92374" lon="2.39057">
        <ele>465.167</ele>
        <time>2016-06-10T08:36:20Z</time>
      </trkpt>
      <trkpt lat="43.92404" lon="2.39259">
        <ele>464.36</ele>
        <time>2016-06-10T08:36:40Z</time>
      </trkpt>
      <trkpt lat="43.92402" lon="2.39298">
        <ele>462.262</ele>
        <time>2016-06-10T08:37:00Z</time>
      </trkpt>
      <trkpt lat="43.92421" lon="2.39315">
        <ele>459.956</ele>
        <time>2016-06-10T08:37:20Z</time>
      </trkpt>
      <trkpt lat="43.92391" lon="2.39394">
        <ele>456.359</ele>
        <time>2016-06-10T08:37:40Z</time>
      </trkpt>
      <trkpt lat="43.92402" lon="2.39542">
        <ele>452.714</ele>
        <time>2016-06-10T08:38:00Z</time>
      </trkpt>
      <trkpt lat="43.92492" lon="2.39673">
        <ele>449.808</ele>
        <time>2016-06-10T08:38:20Z</time>
      </trkpt>
      <trkpt lat="43.92526" lon="2.39757">
        <ele>446.959</ele>
        <time>2016-06-10T08:38:40Z</time>
      </trkpt>
      <trkpt lat="43.92602" lon="2.39808">
        <ele>442.538</ele>
        <time>2016-06-10T08:39:00Z</time>
      </trkpt>
      <trkpt lat="43.927" lon="2.3981">
        <ele>439.725</ele>
        <time>2016-06-10T08:39:20Z</time>
      </trkpt>
      <trkpt lat="43.92767" lon="2.3978">
        <ele>437.62</ele>
        <time>2016-06-10T08:39:40Z</time>
      </trkpt>
      <trkpt lat="43.92785" lon="2.39864">
        <ele>432.156</ele>
        <time>2016-06-10T08:40:00Z</time>
      </trkpt>
      <trkpt lat="43.9277" lon="2.39954">
        <ele>426.423</ele>
        <time>2016-06-10T08:40:20Z</time>
      </trkpt>
      <trkpt lat="43.92727" lon="2.39963">
        <ele>423.856</ele>
        <time>2016-06-10T08:40:40Z</time>
      </trkpt>
      <trkpt lat="43.92673" lon="2.39911">
        <ele>424.868</ele>
        <time>2016-06-10T08:41:00Z</time>
      </trkpt>
      <trkpt lat="43.92571" lon="2.39995">
        <ele>412.255</ele>
        <time>2016-06-10T08:41:20Z</time>
      </trkpt>
      <trkpt lat="43.9253" lon="2.39997">
        <ele>408.907</ele>
        <time>2016-06-10T08:41:40Z</time>
      </trkpt>
      <trkpt lat="43.92561" lon="2.40012">
        <ele>408.817</ele>
        <time>2016-06-10T08:42:00Z</time>
      </trkpt>
      <trkpt lat="43.92626" lon="2.40023">
        <ele>402.108</ele>
        <time>2016-06-10T08:42:20Z</time>
      </trkpt>
      <trkpt lat="43.92665" lon="2.3998">
        <ele>406.369</ele>
        <time>2016-06-10T08:42:40Z</time>
      </trkpt>
      <trkpt lat="43.9268" lon="2.39991">
        <ele>405.898</ele>
        <time>2016-06-10T08:43:00Z</time>
      </trkpt>
      <trkpt lat="43.92761" lon="2.40124">
        <ele>387.915</ele>
        <time>2016-06-10T08:43:20Z</time>
      </trkpt>
      <trkpt lat="43.92818" lon="2.40154">
        <ele>383.26</ele>
        <time>2016-06-10T08:43:40Z</time>
      </trkpt>
      <trkpt lat="43.92887" lon="2.4016">
        <ele>371.376</ele>
        <time>2016-06-10T08:44:00Z</time>
      </trkpt>
      <trkpt lat="43.92971" lon="2.40066">
        <ele>356.843</ele>
        <time>2016-06-10T08:44:20Z</time>
      </trkpt>
      <trkpt lat="43.92971" lon="2.40066">
        <ele>356.856</ele>
        <time>2016-06-10T08:44:40Z</time>
      </trkpt>
      <trkpt lat="43.93003" lon="2.40055">
        <ele>356.878</ele>
        <time>2016-06-10T08:45:00Z</time>
      </trkpt>
      <trkpt lat="43.93033" lon="2.40077">
        <ele>350.754</ele>
        <time>2016-06-10T08:45:20Z</time>
      </trkpt>
      <trkpt lat="43.93047" lon="2.4007">
        <ele>347.856</ele>
        <time>2016-06-10T08:45:40Z</time>
      </trkpt>
      <trkpt lat="43.93065" lon="2.40128">
        <ele>339.711</ele>
        <time>2016-06-10T08:46:00Z</time>
      </trkpt>
      <trkpt lat="43.93119" lon="2.40177">
        <ele>326.508</ele>
        <time>2016-06-10T08:46:20Z</time>
      </trkpt>
      <trkpt lat="43.93099" lon="2.40201">
        <ele>327.359</ele>
        <time>2016-06-10T08:46:40Z</time>
      </trkpt>
      <trkpt lat="43.93179" lon="2.40216">
        <ele>311.258</ele>
        <time>2016-06-10T08:47:00Z</time>
      </trkpt>
      <trkpt lat="43.9313" lon="2.40255">
        <ele>308.865</ele>
        <time>2016-06-10T08:47:20Z</time>
      </trkpt>
      <trkpt lat="43.93062" lon="2.40252">
        <ele>303.45</ele>
        <time>2016-06-10T08:47:40Z</time>
      </trkpt>
      <trkpt lat="43.93093" lon="2.40304">
        <ele>286.126</ele>
        <time>2016-06-10T08:48:00Z</time>
      </trkpt>
      <trkpt lat="43.93136" lon="2.40319">
        <ele>281.373</ele>
        <time>2016-06-10T08:48:20Z</time>
      </trkpt>
      <trkpt lat="43.93181" lon="2.40308">
        <ele>282.246</ele>
        <time>2016-06-10T08:48:40Z</time>
      </trkpt>
      <trkpt lat="43.93244" lon="2.40336">
        <ele>266.588</ele>
        <time>2016-06-10T08:49:00Z</time>
      </trkpt>
      <trkpt lat="43.93315" lon="2.40321">
        <ele>247.246</ele>
        <time>2016-06-10T08:49:20Z</time>
      </trkpt>
      <trkpt lat="43.93322" lon="2.40351">
        <ele>237.088</ele>
        <time>2016-06-10T08:49:40Z</time>
      </trkpt>
      <trkpt lat="43.93295" lon="2.40383">
        <ele>238.816</ele>
        <time>2016-06-10T08:50:00Z</time>
      </trkpt>
      <trkpt lat="43.93192" lon="2.40379">
        <ele>245.008</ele>
        <time>2016-06-10T08:50:20Z</time>
      </trkpt>
      <trkpt lat="43.93125" lon="2.40435">
        <ele>231.948</ele>
        <time>2016-06-10T08:50:40Z</time>
      </trkpt>
      <trkpt lat="43.93138" lon="2.40458">
        <ele>231.047</ele>
        <time>2016-06-10T08:51:00Z</time>
      </trkpt>
      <trkpt lat="43.93183" lon="2.40458">
        <ele>229.654</ele>
        <time>2016-06-10T08:51:20Z</time>
      </trkpt>
      <trkpt lat="43.93201" lon="2.40506">
        <ele>245.339</ele>
        <time>2016-06-10T08:51:40Z</time>
      </trkpt>
      <trkpt lat="43.93258" lon="2.40534">
        <ele>248.455</ele>
        <time>2016-06-10T08:52:00Z</time>
      </trkpt>
      <trkpt lat="43.93346" lon="2.40534">
        <ele>253.632</ele>
        <time>2016-06-10T08:52:20Z</time>
      </trkpt>
      <trkpt lat="43.93462" lon="2.40478">
        <ele>263.725</ele>
        <time>2016-06-10T08:52:40Z</time>
      </trkpt>
      <trkpt lat="43.9347" lon="2.40484">
        <ele>266.777</ele>
        <time>2016-06-10T08:53:00Z</time>
      </trkpt>
      <trkpt lat="43.93439" lon="2.40566">
        <ele>279.958</ele>
        <time>2016-06-10T08:53:20Z</time>
      </trkpt>
      <trkpt lat="43.93433" lon="2.40632">
        <ele>277.852</ele>
        <time>2016-06-10T08:53:40Z</time>
      </trkpt>
      <trkpt lat="43.93376" lon="2.40744">
        <ele>275.917</ele>
        <time>2016-06-10T08:54:00Z</time>
      </trkpt>
      <trkpt lat="43.93366" lon="2.40845">
        <ele>256.408</ele>
        <time>2016-06-10T08:54:20Z</time>
      </trkpt>
      <trkpt lat="43.93336" lon="2.40965">
        <ele>245.959</ele>
        <time>2016-06-10T08:54:40Z</time>
      </trkpt>
      <trkpt lat="43.93285" lon="2.41049">
        <ele>240.978</ele>
        <time>2016-06-10T08:55:00Z</time>
      </trkpt>
      <trkpt lat="43.93261" lon="2.41064">
        <ele>241.845</ele>
        <time>2016-06-10T08:55:20Z</time>
      </trkpt>
      <trkpt lat="43.93247" lon="2.41164">
        <ele>222.11</ele>
        <time>2016-06-10T08:55:40Z</time>
      </trkpt>
      <trkpt lat="43.93291" lon="2.41263">
        <ele>223.586</ele>
        <time>2016-06-10T08:56:00Z</time>
      </trkpt>
      <trkpt lat="43.93319" lon="2.4124">
        <ele>221.923</ele>
        <time>2016-06-10T08:56:20Z</time>
      </trkpt>
      <trkpt lat="43.93354" lon="2.41302">
        <ele>231.146</ele>
        <time>2016-06-10T08:56:40Z</time>
      </trkpt>
      <trkpt lat="43.93366" lon="2.41433">
        <ele>252.118</ele>
        <time>2016-06-10T08:57:00Z</time>
      </trkpt>
      <trkpt lat="43.93394" lon="2.41525">
        <ele>263.952</ele>
        <time>2016-06-10T08:57:20Z</time>
      </trkpt>
      <trkpt lat="43.93478" lon="2.41626">
        <ele>271.953</ele>
        <time>2016-06-10T08:57:40Z</time>
      </trkpt>
      <trkpt lat="43.93504" lon="2.41709">
        <ele>287.108</ele>
        <time>2016-06-10T08:58:00Z</time>
      </trkpt>
      <trkpt lat="43.9355" lon="2.4192">
        <ele>325.808</ele>
        <time>2016-06-10T08:58:20Z</time>
      </trkpt>
      <trkpt lat="43.93538" lon="2.41982">
        <ele>334.789</ele>
        <time>2016-06-10T08:58:40Z</time>
      </trkpt>
      <trkpt lat="43.93495" lon="2.42072">
        <ele>347.388</ele>
        <time>2016-06-10T08:59:00Z</time>
      </trkpt>
      <trkpt lat="43.93481" lon="2.42229">
        <ele>357.865</ele>
        <time>2016-06-10T08:59:20Z</time>
      </trkpt>
      <trkpt lat="43.93555" lon="2.42501">
        <ele>356.52</ele>
        <time>2016-06-10T08:59:40Z</time>
      </trkpt>
      <trkpt lat="43.93553" lon="2.42563">
        <ele>362.496</ele>
        <time>2016-06-10T09:00:00Z</time>
      </trkpt>
      <trkpt lat="43.93448" lon="2.42778">
        <ele>406.963</ele>
        <time>2016-06-10T09:00:20Z</time>
      </trkpt>
      <trkpt lat="43.9345" lon="2.42851">
        <ele>402.656</ele>
        <time>2016-06-10T09:00:40Z</time>
      </trkpt>
      <trkpt lat="43.93413" lon="2.42933">
        <ele>415.098</ele>
        <time>2016-06-10T09:01:00Z</time>
      </trkpt>
      <trkpt lat="43.93433" lon="2.4304">
        <ele>413.752</ele>
        <time>2016-06-10T09:01:20Z</time>
      </trkpt>
      <trkpt lat="43.93408" lon="2.43173">
        <ele>420.053</ele>
        <time>2016-06-10T09:01:40Z</time>
      </trkpt>
      <trkpt lat="43.93336" lon="2.43229">
        <ele>433.708</ele>
        <time>2016-06-10T09:02:00Z</time>
      </trkpt>
      <trkpt lat="43.93302" lon="2.43194">
        <ele>452.008</ele>
        <time>2016-06-10T09:02:20Z</time>
      </trkpt>
      <trkpt lat="43.93269" lon="2.4325">
        <ele>451.899</ele>
        <time>2016-06-10T09:02:40Z</time>
      </trkpt>
      <trkpt lat="43.93257" lon="2.43387">
        <ele>441.938</ele>
        <time>2016-06-10T09:03:00Z</time>
      </trkpt>
      <trkpt lat="43.93269" lon="2.43471">
        <ele>442.445</ele>
        <time>2016-06-10T09:03:20Z</time>
      </trkpt>
      <trkpt lat="43.93315" lon="2.43475">
        <ele>439.23</ele>
        <time>2016-06-10T09:03:40Z</time>
      </trkpt>
      <trkpt lat="43.93337" lon="2.43499">
        <ele>442.396</ele>
        <time>2016-06-10T09:04:00Z</time>
      </trkpt>
      <trkpt lat="43.9323" lon="2.43527">
        <ele>459.443</ele>
        <time>2016-06-10T09:04:20Z</time>
      </trkpt>
      <trkpt lat="43.93181" lon="2.43456">
        <ele>462.716</ele>
        <time>2016-06-10T09:04:40Z</time>
      </trkpt>
      <trkpt lat="43.93166" lon="2.43463">
        <ele>463.768</ele>
        <time>2016-06-10T09:05:00Z</time>
      </trkpt>
      <trkpt lat="43.93153" lon="2.43587">
        <ele>469.996</ele>
        <time>2016-06-10T09:05:20Z</time>
      </trkpt>
      <trkpt lat="43.93176" lon="2.4363">
        <ele>476.931</ele>
        <time>2016-06-10T09:05:40Z</time>
      </trkpt>
      <trkpt lat="43.93176" lon="2.43677">
        <ele>479.324</ele>
        <time>2016-06-10T09:06:00Z</time>
      </trkpt>
      <trkpt lat="43.93227" lon="2.43765">
        <ele>484.708</ele>
        <time>2016-06-10T09:06:20Z</time>
      </trkpt>
      <trkpt lat="43.93234" lon="2.43849">
        <ele>486.313</ele>
        <time>2016-06-10T09:06:40Z</time>
      </trkpt>
      <trkpt lat="43.93257" lon="2.439">
        <ele>487.742</ele>
        <time>2016-06-10T09:07:00Z</time>
      </trkpt>
      <trkpt lat="43.93196" lon="2.44072">
        <ele>489.569</ele>
        <time>2016-06-10T09:07:20Z</time>
      </trkpt>
      <trkpt lat="43.93145" lon="2.44156">
        <ele>489.094</ele>
        <time>2016-06-10T09:07:40Z</time>
      </trkpt>
      <trkpt lat="43.93091" lon="2.44327">
        <ele>485.83</ele>
        <time>2016-06-10T09:08:00Z</time>
      </trkpt>
      <trkpt lat="43.93099" lon="2.44439">
        <ele>480.757</ele>
        <time>2016-06-10T09:08:20Z</time>
      </trkpt>
      <trkpt lat="43.93196" lon="2.44596">
        <ele>469.36</ele>
        <time>2016-06-10T09:08:40Z</time>
      </trkpt>
      <trkpt lat="43.93204" lon="2.44686">
        <ele>472.722</ele>
        <time>2016-06-10T09:09:00Z</time>
      </trkpt>
      <trkpt lat="43.93289" lon="2.44724">
        <ele>464.798</ele>
        <time>2016-06-10T09:09:20Z</time>
      </trkpt>
      <trkpt lat="43.93298" lon="2.44761">
        <ele>462.215</ele>
        <time>2016-06-10T09:09:40Z</time>
      </trkpt>
      <trkpt lat="43.9323" lon="2.44806">
        <ele>455.726</ele>
        <time>2016-06-10T09:10:00Z</time>
      </trkpt>
      <trkpt lat="43.9324" lon="2.44853">
        <ele>452.608</ele>
        <time>2016-06-10T09:10:20Z</time>
      </trkpt>
      <trkpt lat="43.93289" lon="2.44939">
        <ele>445.343</ele>
        <time>2016-06-10T09:10:40Z</time>
      </trkpt>
      <trkpt lat="43.93298" lon="2.45023">
        <ele>444.722</ele>
        <time>2016-06-10T09:11:00Z</time>
      </trkpt>
      <trkpt lat="43.93286" lon="2.45111">
        <ele>443.059</ele>
        <time>2016-06-10T09:11:20Z</time>
      </trkpt>
      <trkpt lat="43.93252" lon="2.45222">
        <ele>433.714</ele>
        <time>2016-06-10T09:11:40Z</time>
      </trkpt>
      <trkpt lat="43.93206" lon="2.45239">
        <ele>434.59</ele>
        <time>2016-06-10T09:12:00Z</time>
      </trkpt>
      <trkpt lat="43.93169" lon="2.45349">
        <ele>424.417</ele>
        <time>2016-06-10T09:12:20Z</time>
      </trkpt>
      <trkpt lat="43.93125" lon="2.454">
        <ele>424.06</ele>
        <time>2016-06-10T09:12:40Z</time>
      </trkpt>
      <trkpt lat="43.93034" lon="2.45411">
        <ele>420.542</ele>
        <time>2016-06-10T09:13:00Z</time>
      </trkpt>
      <trkpt lat="43.9305" lon="2.45465">
        <ele>418.211</ele>
        <time>2016-06-10T09:13:20Z</time>
      </trkpt>
      <trkpt lat="43.93127" lon="2.45557">
        <ele>414.221</ele>
        <time>2016-06-10T09:13:40Z</time>
      </trkpt>
      <trkpt lat="43.93141" lon="2.45658">
        <ele>417.503</ele>
        <time>2016-06-10T09:14:00Z</time>
      </trkpt>
      <trkpt lat="43.9321" lon="2.4575">
        <ele>420.008</ele>
        <time>2016-06-10T09:14:20Z</time>
      </trkpt>
      <trkpt lat="43.93243" lon="2.4578">
        <ele>422.245</ele>
        <time>2016-06-10T09:14:40Z</time>
      </trkpt>
      <trkpt lat="43.93332" lon="2.45967">
        <ele>425.364</ele>
        <time>2016-06-10T09:15:00Z</time>
      </trkpt>
      <trkpt lat="43.93315" lon="2.46055">
        <ele>421.631</ele>
        <time>2016-06-10T09:15:20Z</time>
      </trkpt>
      <trkpt lat="43.93339" lon="2.46031">
        <ele>419.446</ele>
        <time>2016-06-10T09:15:40Z</time>
      </trkpt>
      <trkpt lat="43.93431" lon="2.45851">
        <ele>412.092</ele>
        <time>2016-06-10T09:16:00Z</time>
      </trkpt>
      <trkpt lat="43.93518" lon="2.45852">
        <ele>404.979</ele>
        <time>2016-06-10T09:17:40Z</time>
      </trkpt>
      <trkpt lat="43.9355" lon="2.45896">
        <ele>395.262</ele>
        <time>2016-06-10T09:18:20Z</time>
      </trkpt>
      <trkpt lat="43.93579" lon="2.45897">
        <ele>391.294</ele>
        <time>2016-06-10T09:19:00Z</time>
      </trkpt>
      <trkpt lat="43.93617" lon="2.45868">
        <ele>390.024</ele>
        <time>2016-06-10T09:19:20Z</time>
      </trkpt>
      <trkpt lat="43.93652" lon="2.45859">
        <ele>388.604</ele>
        <time>2016-06-10T09:19:40Z</time>
      </trkpt>
      <trkpt lat="43.93696" lon="2.45896">
        <ele>381.214</ele>
        <time>2016-06-10T09:20:00Z</time>
      </trkpt>
      <trkpt lat="43.93729" lon="2.45875">
        <ele>379.108</ele>
        <time>2016-06-10T09:20:20Z</time>
      </trkpt>
      <trkpt lat="43.93734" lon="2.45918">
        <ele>374.896</ele>
        <time>2016-06-10T09:21:20Z</time>
      </trkpt>
      <trkpt lat="43.93774" lon="2.46065">
        <ele>357.075</ele>
        <time>2016-06-10T09:21:40Z</time>
      </trkpt>
      <trkpt lat="43.93823" lon="2.46152">
        <ele>345.282</ele>
        <time>2016-06-10T09:22:00Z</time>
      </trkpt>
      <trkpt lat="43.93923" lon="2.46171">
        <ele>328.797</ele>
        <time>2016-06-10T09:22:20Z</time>
      </trkpt>
      <trkpt lat="43.93932" lon="2.4619">
        <ele>326.213</ele>
        <time>2016-06-10T09:22:40Z</time>
      </trkpt>
      <trkpt lat="43.9393" lon="2.46213">
        <ele>325.24</ele>
        <time>2016-06-10T09:23:00Z</time>
      </trkpt>
      <trkpt lat="43.93949" lon="2.46224">
        <ele>320.913</ele>
        <time>2016-06-10T09:23:20Z</time>
      </trkpt>
      <trkpt lat="43.93977" lon="2.46181">
        <ele>314.775</ele>
        <time>2016-06-10T09:23:40Z</time>
      </trkpt>
      <trkpt lat="43.93994" lon="2.46179">
        <ele>307.819</ele>
        <time>2016-06-10T09:24:00Z</time>
      </trkpt>
      <trkpt lat="43.94003" lon="2.46207">
        <ele>305.809</ele>
        <time>2016-06-10T09:24:20Z</time>
      </trkpt>
      <trkpt lat="43.93997" lon="2.46302">
        <ele>299.219</ele>
        <time>2016-06-10T09:24:40Z</time>
      </trkpt>
      <trkpt lat="43.93977" lon="2.46329">
        <ele>297.108</ele>
        <time>2016-06-10T09:25:40Z</time>
      </trkpt>
      <trkpt lat="43.93977" lon="2.46357">
        <ele>289.455</ele>
        <time>2016-06-10T09:26:00Z</time>
      </trkpt>
      <trkpt lat="43.94003" lon="2.46372">
        <ele>281.394</ele>
        <time>2016-06-10T09:26:20Z</time>
      </trkpt>
      <trkpt lat="43.9407" lon="2.46323">
        <ele>278.061</ele>
        <time>2016-06-10T09:26:40Z</time>
      </trkpt>
      <trkpt lat="43.94119" lon="2.46331">
        <ele>269.056</ele>
        <time>2016-06-10T09:27:40Z</time>
      </trkpt>
      <trkpt lat="43.94119" lon="2.46331">
        <ele>269.052</ele>
        <time>2016-06-10T09:28:20Z</time>
      </trkpt>
      <trkpt lat="43.94099" lon="2.46361">
        <ele>267.319</ele>
        <time>2016-06-10T09:28:40Z</time>
      </trkpt>
      <trkpt lat="43.94164" lon="2.46361">
        <ele>259.422</ele>
        <time>2016-06-10T09:29:00Z</time>
      </trkpt>
      <trkpt lat="43.94141" lon="2.46409">
        <ele>252.444</ele>
        <time>2016-06-10T09:29:20Z</time>
      </trkpt>
      <trkpt lat="43.94042" lon="2.46469">
        <ele>246.828</ele>
        <time>2016-06-10T09:29:40Z</time>
      </trkpt>
      <trkpt lat="43.93986" lon="2.46492">
        <ele>246.389</ele>
        <time>2016-06-10T09:30:00Z</time>
      </trkpt>
      <trkpt lat="43.93983" lon="2.4651">
        <ele>240.617</ele>
        <time>2016-06-10T09:30:20Z</time>
      </trkpt>
      <trkpt lat="43.94043" lon="2.46495">
        <ele>237.508</ele>
        <time>2016-06-10T09:30:40Z</time>
      </trkpt>
      <trkpt lat="43.9412" lon="2.46486">
        <ele>229.996</ele>
        <time>2016-06-10T09:31:00Z</time>
      </trkpt>
      <trkpt lat="43.94198" lon="2.46458">
        <ele>224.725</ele>
        <time>2016-06-10T09:31:20Z</time>
      </trkpt>
      <trkpt lat="43.94192" lon="2.46619">
        <ele>219.612</ele>
        <time>2016-06-10T09:31:40Z</time>
      </trkpt>
      <trkpt lat="43.94312" lon="2.46628">
        <ele>219.987</ele>
        <time>2016-06-10T09:32:00Z</time>
      </trkpt>
      <trkpt lat="43.94337" lon="2.46648">
        <ele>219.623</ele>
        <time>2016-06-10T09:32:20Z</time>
      </trkpt>
      <trkpt lat="43.94324" lon="2.46668">
        <ele>221.89</ele>
        <time>2016-06-10T09:32:40Z</time>
      </trkpt>
      <trkpt lat="43.94338" lon="2.46746">
        <ele>224.023</ele>
        <time>2016-06-10T09:33:00Z</time>
      </trkpt>
      <trkpt lat="43.94328" lon="2.46749">
        <ele>226.175</ele>
        <time>2016-06-10T09:33:20Z</time>
      </trkpt>
      <trkpt lat="43.94307" lon="2.4671">
        <ele>226.987</ele>
        <time>2016-06-10T09:33:40Z</time>
      </trkpt>
      <trkpt lat="43.94273" lon="2.46727">
        <ele>239.342</ele>
        <time>2016-06-10T09:34:00Z</time>
      </trkpt>
      <trkpt lat="43.94247" lon="2.46795">
        <ele>254.826</ele>
        <time>2016-06-10T09:34:20Z</time>
      </trkpt>
      <trkpt lat="43.94199" lon="2.46829">
        <ele>261.508</ele>
        <time>2016-06-10T09:34:40Z</time>
      </trkpt>
      <trkpt lat="43.94187" lon="2.46868">
        <ele>265.052</ele>
        <time>2016-06-10T09:35:00Z</time>
      </trkpt>
      <trkpt lat="43.94171" lon="2.4696">
        <ele>271.221</ele>
        <time>2016-06-10T09:35:20Z</time>
      </trkpt>
      <trkpt lat="43.94119" lon="2.4702">
        <ele>278.968</ele>
        <time>2016-06-10T09:35:40Z</time>
      </trkpt>
      <trkpt lat="43.94087" lon="2.46971">
        <ele>281.483</ele>
        <time>2016-06-10T09:36:00Z</time>
      </trkpt>
      <trkpt lat="43.94043" lon="2.46967">
        <ele>288.829</ele>
        <time>2016-06-10T09:36:20Z</time>
      </trkpt>
      <trkpt lat="43.93992" lon="2.46937">
        <ele>291.436</ele>
        <time>2016-06-10T09:36:40Z</time>
      </trkpt>
      <trkpt lat="43.9392" lon="2.46947">
        <ele>294.569</ele>
        <time>2016-06-10T09:37:00Z</time>
      </trkpt>
      <trkpt lat="43.93873" lon="2.47044">
        <ele>304.891</ele>
        <time>2016-06-10T09:37:20Z</time>
      </trkpt>
      <trkpt lat="43.9381" lon="2.47061">
        <ele>302.353</ele>
        <time>2016-06-10T09:37:40Z</time>
      </trkpt>
      <trkpt lat="43.93768" lon="2.47149">
        <ele>313.304</ele>
        <time>2016-06-10T09:38:00Z</time>
      </trkpt>
      <trkpt lat="43.93679" lon="2.47164">
        <ele>316.614</ele>
        <time>2016-06-10T09:38:20Z</time>
      </trkpt>
      <trkpt lat="43.93603" lon="2.4728">
        <ele>325.908</ele>
        <time>2016-06-10T09:38:40Z</time>
      </trkpt>
      <trkpt lat="43.93553" lon="2.47406">
        <ele>336.199</ele>
        <time>2016-06-10T09:39:00Z</time>
      </trkpt>
      <trkpt lat="43.93532" lon="2.47409">
        <ele>336.278</ele>
        <time>2016-06-10T09:39:20Z</time>
      </trkpt>
      <trkpt lat="43.93512" lon="2.47379">
        <ele>336.175</ele>
        <time>2016-06-10T09:39:40Z</time>
      </trkpt>
      <trkpt lat="43.93473" lon="2.47366">
        <ele>343.31</ele>
        <time>2016-06-10T09:40:00Z</time>
      </trkpt>
      <trkpt lat="43.93479" lon="2.47267">
        <ele>341.996</ele>
        <time>2016-06-10T09:40:20Z</time>
      </trkpt>
      <trkpt lat="43.93428" lon="2.47177">
        <ele>350.423</ele>
        <time>2016-06-10T09:40:40Z</time>
      </trkpt>
      <trkpt lat="43.934" lon="2.47192">
        <ele>352.726</ele>
        <time>2016-06-10T09:41:00Z</time>
      </trkpt>
      <trkpt lat="43.93339" lon="2.47301">
        <ele>358.258</ele>
        <time>2016-06-10T09:41:20Z</time>
      </trkpt>
      <trkpt lat="43.93342" lon="2.47473">
        <ele>372.925</ele>
        <time>2016-06-10T09:41:40Z</time>
      </trkpt>
      <trkpt lat="43.93315" lon="2.47565">
        <ele>378.126</ele>
        <time>2016-06-10T09:42:00Z</time>
      </trkpt>
      <trkpt lat="43.93229" lon="2.4772">
        <ele>389.608</ele>
        <time>2016-06-10T09:42:20Z</time>
      </trkpt>
      <trkpt lat="43.93179" lon="2.47754">
        <ele>393.608</ele>
        <time>2016-06-10T09:42:40Z</time>
      </trkpt>
      <trkpt lat="43.93135" lon="2.47754">
        <ele>393.296</ele>
        <time>2016-06-10T09:43:00Z</time>
      </trkpt>
      <trkpt lat="43.9307" lon="2.47799">
        <ele>398.265</ele>
        <time>2016-06-10T09:43:20Z</time>
      </trkpt>
      <trkpt lat="43.9298" lon="2.47945">
        <ele>400.412</ele>
        <time>2016-06-10T09:43:40Z</time>
      </trkpt>
      <trkpt lat="43.92951" lon="2.47949">
        <ele>391.797</ele>
        <time>2016-06-10T09:44:00Z</time>
      </trkpt>
      <trkpt lat="43.92911" lon="2.47994">
        <ele>391.943</ele>
        <time>2016-06-10T09:44:20Z</time>
      </trkpt>
      <trkpt lat="43.92764" lon="2.48039">
        <ele>377.61</ele>
        <time>2016-06-10T09:44:40Z</time>
      </trkpt>
      <trkpt lat="43.92728" lon="2.481">
        <ele>379.833</ele>
        <time>2016-06-10T09:45:00Z</time>
      </trkpt>
      <trkpt lat="43.92685" lon="2.48091">
        <ele>371.485</ele>
        <time>2016-06-10T09:45:20Z</time>
      </trkpt>
      <trkpt lat="43.92765" lon="2.48001">
        <ele>370.694</ele>
        <time>2016-06-10T09:45:40Z</time>
      </trkpt>
      <trkpt lat="43.92787" lon="2.47913">
        <ele>363.257</ele>
        <time>2016-06-10T09:46:00Z</time>
      </trkpt>
      <trkpt lat="43.92772" lon="2.47876">
        <ele>358.222</ele>
        <time>2016-06-10T09:46:20Z</time>
      </trkpt>
      <trkpt lat="43.92792" lon="2.47833">
        <ele>352.508</ele>
        <time>2016-06-10T09:46:40Z</time>
      </trkpt>
      <trkpt lat="43.92755" lon="2.47851">
        <ele>351.883</ele>
        <time>2016-06-10T09:47:00Z</time>
      </trkpt>
      <trkpt lat="43.9275" lon="2.47906">
        <ele>355.272</ele>
        <time>2016-06-10T09:47:20Z</time>
      </trkpt>
      <trkpt lat="43.92716" lon="2.47973">
        <ele>347.249</ele>
        <time>2016-06-10T09:47:40Z</time>
      </trkpt>
      <trkpt lat="43.9267" lon="2.47945">
        <ele>338.394</ele>
        <time>2016-06-10T09:48:00Z</time>
      </trkpt>
      <trkpt lat="43.92626" lon="2.47977">
        <ele>338.71</ele>
        <time>2016-06-10T09:48:20Z</time>
      </trkpt>
      <trkpt lat="43.92577" lon="2.4796">
        <ele>332.417</ele>
        <time>2016-06-10T09:48:40Z</time>
      </trkpt>
      <trkpt lat="43.92527" lon="2.47984">
        <ele>334.35</ele>
        <time>2016-06-10T09:49:40Z</time>
      </trkpt>
      <trkpt lat="43.92575" lon="2.47932">
        <ele>320.852</ele>
        <time>2016-06-10T09:50:00Z</time>
      </trkpt>
      <trkpt lat="43.92529" lon="2.47926">
        <ele>316.641</ele>
        <time>2016-06-10T09:50:20Z</time>
      </trkpt>
      <trkpt lat="43.92503" lon="2.47956">
        <ele>318.381</ele>
        <time>2016-06-10T09:50:40Z</time>
      </trkpt>
      <trkpt lat="43.92518" lon="2.47915">
        <ele>310.109</ele>
        <time>2016-06-10T09:51:00Z</time>
      </trkpt>
      <trkpt lat="43.92564" lon="2.47881">
        <ele>300.208</ele>
        <time>2016-06-10T09:51:40Z</time>
      </trkpt>
      <trkpt lat="43.92484" lon="2.47889">
        <ele>292.788</ele>
        <time>2016-06-10T09:52:20Z</time>
      </trkpt>
      <trkpt lat="43.92439" lon="2.47911">
        <ele>287.847</ele>
        <time>2016-06-10T09:52:40Z</time>
      </trkpt>
      <trkpt lat="43.925" lon="2.47829">
        <ele>275.944</ele>
        <time>2016-06-10T09:53:00Z</time>
      </trkpt>
      <trkpt lat="43.92444" lon="2.47844">
        <ele>269.419</ele>
        <time>2016-06-10T09:53:20Z</time>
      </trkpt>
      <trkpt lat="43.92453" lon="2.47803">
        <ele>260.395</ele>
        <time>2016-06-10T09:53:40Z</time>
      </trkpt>
      <trkpt lat="43.92356" lon="2.47941">
        <ele>266.382</ele>
        <time>2016-06-10T09:54:00Z</time>
      </trkpt>
      <trkpt lat="43.92217" lon="2.48031">
        <ele>262.185</ele>
        <time>2016-06-10T09:54:20Z</time>
      </trkpt>
      <trkpt lat="43.92153" lon="2.48022">
        <ele>267.527</ele>
        <time>2016-06-10T09:54:40Z</time>
      </trkpt>
      <trkpt lat="43.91782" lon="2.47833">
        <ele>270.078</ele>
        <time>2016-06-10T09:55:00Z</time>
      </trkpt>
      <trkpt lat="43.91725" lon="2.47891">
        <ele>274.433</ele>
        <time>2016-06-10T09:55:20Z</time>
      </trkpt>
      <trkpt lat="43.91671" lon="2.47906">
        <ele>279.426</ele>
        <time>2016-06-10T09:55:40Z</time>
      </trkpt>
      <trkpt lat="43.91634" lon="2.47947">
        <ele>278.208</ele>
        <time>2016-06-10T09:56:00Z</time>
      </trkpt>
      <trkpt lat="43.91572" lon="2.47947">
        <ele>287.531</ele>
        <time>2016-06-10T09:56:20Z</time>
      </trkpt>
      <trkpt lat="43.91479" lon="2.48015">
        <ele>291.37</ele>
        <time>2016-06-10T09:56:40Z</time>
      </trkpt>
      <trkpt lat="43.9143" lon="2.48035">
        <ele>301.237</ele>
        <time>2016-06-10T09:57:00Z</time>
      </trkpt>
      <trkpt lat="43.91384" lon="2.48076">
        <ele>306.012</ele>
        <time>2016-06-10T09:57:20Z</time>
      </trkpt>
      <trkpt lat="43.91339" lon="2.48293">
        <ele>308.058</ele>
        <time>2016-06-10T09:57:40Z</time>
      </trkpt>
      <trkpt lat="43.91257" lon="2.48366">
        <ele>321.615</ele>
        <time>2016-06-10T09:58:00Z</time>
      </trkpt>
      <trkpt lat="43.91251" lon="2.48424">
        <ele>312.238</ele>
        <time>2016-06-10T09:58:20Z</time>
      </trkpt>
      <trkpt lat="43.91186" lon="2.48546">
        <ele>327.69</ele>
        <time>2016-06-10T09:58:40Z</time>
      </trkpt>
      <trkpt lat="43.91176" lon="2.48739">
        <ele>328.294</ele>
        <time>2016-06-10T09:59:00Z</time>
      </trkpt>
      <trkpt lat="43.91099" lon="2.48793">
        <ele>329.657</ele>
        <time>2016-06-10T09:59:20Z</time>
      </trkpt>
      <trkpt lat="43.91039" lon="2.4877">
        <ele>346.622</ele>
        <time>2016-06-10T09:59:40Z</time>
      </trkpt>
      <trkpt lat="43.91045" lon="2.48754">
        <ele>349.408</ele>
        <time>2016-06-10T10:00:00Z</time>
      </trkpt>
      <trkpt lat="43.91107" lon="2.4875">
        <ele>347.413</ele>
        <time>2016-06-10T10:00:20Z</time>
      </trkpt>
      <trkpt lat="43.91084" lon="2.48685">
        <ele>359.972</ele>
        <time>2016-06-10T10:00:40Z</time>
      </trkpt>
      <trkpt lat="43.91096" lon="2.48597">
        <ele>362.639</ele>
        <time>2016-06-10T10:01:00Z</time>
      </trkpt>
      <trkpt lat="43.91073" lon="2.48494">
        <ele>374.154</ele>
        <time>2016-06-10T10:01:20Z</time>
      </trkpt>
      <trkpt lat="43.91099" lon="2.48391">
        <ele>370.96</ele>
        <time>2016-06-10T10:01:40Z</time>
      </trkpt>
      <trkpt lat="43.91067" lon="2.48338">
        <ele>384.067</ele>
        <time>2016-06-10T10:02:00Z</time>
      </trkpt>
      <trkpt lat="43.91087" lon="2.48273">
        <ele>384.51</ele>
        <time>2016-06-10T10:02:20Z</time>
      </trkpt>
      <trkpt lat="43.91064" lon="2.4826">
        <ele>389.252</ele>
        <time>2016-06-10T10:02:40Z</time>
      </trkpt>
      <trkpt lat="43.91091" lon="2.48157">
        <ele>387.574</ele>
        <time>2016-06-10T10:03:00Z</time>
      </trkpt>
      <trkpt lat="43.91077" lon="2.48001">
        <ele>408.156</ele>
        <time>2016-06-10T10:03:20Z</time>
      </trkpt>
      <trkpt lat="43.91064" lon="2.47956">
        <ele>413.121</ele>
        <time>2016-06-10T10:03:40Z</time>
      </trkpt>
      <trkpt lat="43.9102" lon="2.47999">
        <ele>429.308</ele>
        <time>2016-06-10T10:04:00Z</time>
      </trkpt>
      <trkpt lat="43.90954" lon="2.47984">
        <ele>441.041</ele>
        <time>2016-06-10T10:04:20Z</time>
      </trkpt>
      <trkpt lat="43.90915" lon="2.47954">
        <ele>435.45</ele>
        <time>2016-06-10T10:04:40Z</time>
      </trkpt>
      <trkpt lat="43.90858" lon="2.47967">
        <ele>445.217</ele>
        <time>2016-06-10T10:05:00Z</time>
      </trkpt>
      <trkpt lat="43.90813" lon="2.47945">
        <ele>448.062</ele>
        <time>2016-06-10T10:05:20Z</time>
      </trkpt>
      <trkpt lat="43.90787" lon="2.47904">
        <ele>440.598</ele>
        <time>2016-06-10T10:05:40Z</time>
      </trkpt>
      <trkpt lat="43.90668" lon="2.47909">
        <ele>462.745</ele>
        <time>2016-06-10T10:06:00Z</time>
      </trkpt>
      <trkpt lat="43.90583" lon="2.47872">
        <ele>455.318</ele>
        <time>2016-06-10T10:06:20Z</time>
      </trkpt>
      <trkpt lat="43.90552" lon="2.47788">
        <ele>441.65</ele>
        <time>2016-06-10T10:06:40Z</time>
      </trkpt>
      <trkpt lat="43.90543" lon="2.47677">
        <ele>414.617</ele>
        <time>2016-06-10T10:07:00Z</time>
      </trkpt>
      <trkpt lat="43.90493" lon="2.47647">
        <ele>413.387</ele>
        <time>2016-06-10T10:07:20Z</time>
      </trkpt>
      <trkpt lat="43.90461" lon="2.47582">
        <ele>401.415</ele>
        <time>2016-06-10T10:07:40Z</time>
      </trkpt>
      <trkpt lat="43.90374" lon="2.47557">
        <ele>393.808</ele>
        <time>2016-06-10T10:08:00Z</time>
      </trkpt>
      <trkpt lat="43.90309" lon="2.47555">
        <ele>390.915</ele>
        <time>2016-06-10T10:08:20Z</time>
      </trkpt>
      <trkpt lat="43.90272" lon="2.47509">
        <ele>376.144</ele>
        <time>2016-06-10T10:08:40Z</time>
      </trkpt>
      <trkpt lat="43.90289" lon="2.47484">
        <ele>366.061</ele>
        <time>2016-06-10T10:09:00Z</time>
      </trkpt>
      <trkpt lat="43.90329" lon="2.47512">
        <ele>371.546</ele>
        <time>2016-06-10T10:09:20Z</time>
      </trkpt>
      <trkpt lat="43.90419" lon="2.47486">
        <ele>363.222</ele>
        <time>2016-06-10T10:09:40Z</time>
      </trkpt>
      <trkpt lat="43.90399" lon="2.47394">
        <ele>402.419</ele>
        <time>2016-06-10T10:10:20Z</time>
      </trkpt>
      <trkpt lat="43.90326" lon="2.4737">
        <ele>409.522</ele>
        <time>2016-06-10T10:10:40Z</time>
      </trkpt>
      <trkpt lat="43.90263" lon="2.47327">
        <ele>406.064</ele>
        <time>2016-06-10T10:11:00Z</time>
      </trkpt>
      <trkpt lat="43.90213" lon="2.47241">
        <ele>405.197</ele>
        <time>2016-06-10T10:11:20Z</time>
      </trkpt>
      <trkpt lat="43.90202" lon="2.4737">
        <ele>389.023</ele>
        <time>2016-06-10T10:11:40Z</time>
      </trkpt>
      <trkpt lat="43.90128" lon="2.47462">
        <ele>399.625</ele>
        <time>2016-06-10T10:12:00Z</time>
      </trkpt>
      <trkpt lat="43.90091" lon="2.47469">
        <ele>404.008</ele>
        <time>2016-06-10T10:12:20Z</time>
      </trkpt>
      <trkpt lat="43.89958" lon="2.47445">
        <ele>422.853</ele>
        <time>2016-06-10T10:12:40Z</time>
      </trkpt>
      <trkpt lat="43.89862" lon="2.47421">
        <ele>434.872</ele>
        <time>2016-06-10T10:13:00Z</time>
      </trkpt>
      <trkpt lat="43.89783" lon="2.47344">
        <ele>449.989</ele>
        <time>2016-06-10T10:13:20Z</time>
      </trkpt>
      <trkpt lat="43.89824" lon="2.47336">
        <ele>458.224</ele>
        <time>2016-06-10T10:13:40Z</time>
      </trkpt>
      <trkpt lat="43.89889" lon="2.47278">
        <ele>468.01</ele>
        <time>2016-06-10T10:14:00Z</time>
      </trkpt>
      <trkpt lat="43.8992" lon="2.47293">
        <ele>469.337</ele>
        <time>2016-06-10T10:14:20Z</time>
      </trkpt>
      <trkpt lat="43.8993" lon="2.47284">
        <ele>474.31</ele>
        <time>2016-06-10T10:14:40Z</time>
      </trkpt>
      <trkpt lat="43.89949" lon="2.47284">
        <ele>477.862</ele>
        <time>2016-06-10T10:15:00Z</time>
      </trkpt>
      <trkpt lat="43.89988" lon="2.47263">
        <ele>487.925</ele>
        <time>2016-06-10T10:15:20Z</time>
      </trkpt>
      <trkpt lat="43.90015" lon="2.47265">
        <ele>486.126</ele>
        <time>2016-06-10T10:15:40Z</time>
      </trkpt>
      <trkpt lat="43.89938" lon="2.472">
        <ele>506.208</ele>
        <time>2016-06-10T10:16:00Z</time>
      </trkpt>
      <trkpt lat="43.89878" lon="2.47183">
        <ele>510.708</ele>
        <time>2016-06-10T10:16:20Z</time>
      </trkpt>
      <trkpt lat="43.89824" lon="2.4717">
        <ele>521.566</ele>
        <time>2016-06-10T10:16:40Z</time>
      </trkpt>
      <trkpt lat="43.89886" lon="2.47117">
        <ele>543.565</ele>
        <time>2016-06-10T10:17:00Z</time>
      </trkpt>
      <trkpt lat="43.89974" lon="2.47128">
        <ele>529.972</ele>
        <time>2016-06-10T10:17:20Z</time>
      </trkpt>
      <trkpt lat="43.89955" lon="2.47059">
        <ele>533.887</ele>
        <time>2016-06-10T10:17:40Z</time>
      </trkpt>
      <trkpt lat="43.89895" lon="2.46989">
        <ele>558.993</ele>
        <time>2016-06-10T10:18:00Z</time>
      </trkpt>
      <trkpt lat="43.89824" lon="2.46954">
        <ele>565.18</ele>
        <time>2016-06-10T10:18:20Z</time>
      </trkpt>
      <trkpt lat="43.8976" lon="2.46876">
        <ele>568.583</ele>
        <time>2016-06-10T10:18:40Z</time>
      </trkpt>
      <trkpt lat="43.89726" lon="2.4681">
        <ele>573.635</ele>
        <time>2016-06-10T10:19:00Z</time>
      </trkpt>
      <trkpt lat="43.89604" lon="2.46756">
        <ele>588.923</ele>
        <time>2016-06-10T10:19:20Z</time>
      </trkpt>
      <trkpt lat="43.89524" lon="2.46726">
        <ele>596.483</ele>
        <time>2016-06-10T10:19:40Z</time>
      </trkpt>
      <trkpt lat="43.89448" lon="2.46705">
        <ele>602.311</ele>
        <time>2016-06-10T10:20:00Z</time>
      </trkpt>
      <trkpt lat="43.89415" lon="2.4667">
        <ele>604.208</ele>
        <time>2016-06-10T10:20:20Z</time>
      </trkpt>
      <trkpt lat="43.89385" lon="2.46567">
        <ele>605.036</ele>
        <time>2016-06-10T10:20:40Z</time>
      </trkpt>
      <trkpt lat="43.89363" lon="2.46512">
        <ele>605.065</ele>
        <time>2016-06-10T10:21:00Z</time>
      </trkpt>
      <trkpt lat="43.89355" lon="2.46426">
        <ele>606.522</ele>
        <time>2016-06-10T10:21:20Z</time>
      </trkpt>
      <trkpt lat="43.89259" lon="2.46138">
        <ele>609.737</ele>
        <time>2016-06-10T10:22:00Z</time>
      </trkpt>
      <trkpt lat="43.89187" lon="2.46123">
        <ele>614.173</ele>
        <time>2016-06-10T10:22:20Z</time>
      </trkpt>
      <trkpt lat="43.89092" lon="2.4607">
        <ele>615.03</ele>
        <time>2016-06-10T10:22:40Z</time>
      </trkpt>
      <trkpt lat="43.88924" lon="2.46029">
        <ele>615.053</ele>
        <time>2016-06-10T10:23:00Z</time>
      </trkpt>
      <trkpt lat="43.88849" lon="2.46074">
        <ele>610.625</ele>
        <time>2016-06-10T10:23:20Z</time>
      </trkpt>
      <trkpt lat="43.88817" lon="2.46196">
        <ele>607.635</ele>
        <time>2016-06-10T10:23:40Z</time>
      </trkpt>
      <trkpt lat="43.88775" lon="2.46269">
        <ele>610.186</ele>
        <time>2016-06-10T10:24:00Z</time>
      </trkpt>
      <trkpt lat="43.88652" lon="2.46175">
        <ele>603.314</ele>
        <time>2016-06-10T10:24:20Z</time>
      </trkpt>
      <trkpt lat="43.88568" lon="2.46179">
        <ele>594.408</ele>
        <time>2016-06-10T10:24:40Z</time>
      </trkpt>
      <trkpt lat="43.88471" lon="2.46087">
        <ele>593.767</ele>
        <time>2016-06-10T10:25:00Z</time>
      </trkpt>
      <trkpt lat="43.88404" lon="2.45967">
        <ele>595.056</ele>
        <time>2016-06-10T10:25:20Z</time>
      </trkpt>
      <trkpt lat="43.88311" lon="2.45975">
        <ele>600.183</ele>
        <time>2016-06-10T10:25:40Z</time>
      </trkpt>
      <trkpt lat="43.87985" lon="2.45909">
        <ele>621.888</ele>
        <time>2016-06-10T10:26:00Z</time>
      </trkpt>
      <trkpt lat="43.87911" lon="2.45864">
        <ele>622.754</ele>
        <time>2016-06-10T10:26:20Z</time>
      </trkpt>
      <trkpt lat="43.87815" lon="2.45641">
        <ele>610.711</ele>
        <time>2016-06-10T10:26:40Z</time>
      </trkpt>
      <trkpt lat="43.87744" lon="2.45565">
        <ele>606.164</ele>
        <time>2016-06-10T10:27:00Z</time>
      </trkpt>
      <trkpt lat="43.87589" lon="2.45274">
        <ele>613.526</ele>
        <time>2016-06-10T10:27:20Z</time>
      </trkpt>
      <trkpt lat="43.87501" lon="2.45098">
        <ele>601.597</ele>
        <time>2016-06-10T10:27:40Z</time>
      </trkpt>
      <trkpt lat="43.87405" lon="2.44958">
        <ele>585.523</ele>
        <time>2016-06-10T10:28:00Z</time>
      </trkpt>
      <trkpt lat="43.87286" lon="2.44986">
        <ele>571.325</ele>
        <time>2016-06-10T10:28:20Z</time>
      </trkpt>
      <trkpt lat="43.87176" lon="2.44984">
        <ele>550.108</ele>
        <time>2016-06-10T10:28:40Z</time>
      </trkpt>
      <trkpt lat="43.87108" lon="2.4501">
        <ele>545.293</ele>
        <time>2016-06-10T10:29:00Z</time>
      </trkpt>
      <trkpt lat="43.87062" lon="2.45083">
        <ele>543.062</ele>
        <time>2016-06-10T10:29:20Z</time>
      </trkpt>
      <trkpt lat="43.87052" lon="2.45166">
        <ele>543.979</ele>
        <time>2016-06-10T10:30:40Z</time>
      </trkpt>
      <trkpt lat="43.8702" lon="2.45061">
        <ele>530.154</ele>
        <time>2016-06-10T10:31:20Z</time>
      </trkpt>
      <trkpt lat="43.86993" lon="2.44999">
        <ele>518.33</ele>
        <time>2016-06-10T10:31:40Z</time>
      </trkpt>
      <trkpt lat="43.86988" lon="2.44913">
        <ele>510.667</ele>
        <time>2016-06-10T10:32:20Z</time>
      </trkpt>
      <trkpt lat="43.86993" lon="2.44819">
        <ele>495.17</ele>
        <time>2016-06-10T10:32:40Z</time>
      </trkpt>
      <trkpt lat="43.87171" lon="2.44797">
        <ele>503.722</ele>
        <time>2016-06-10T10:33:00Z</time>
      </trkpt>
      <trkpt lat="43.87218" lon="2.44709">
        <ele>505.627</ele>
        <time>2016-06-10T10:33:20Z</time>
      </trkpt>
      <trkpt lat="43.87174" lon="2.44626">
        <ele>491.568</ele>
        <time>2016-06-10T10:33:40Z</time>
      </trkpt>
      <trkpt lat="43.87167" lon="2.44542">
        <ele>491.514</ele>
        <time>2016-06-10T10:34:00Z</time>
      </trkpt>
      <trkpt lat="43.87125" lon="2.44495">
        <ele>494.608</ele>
        <time>2016-06-10T10:34:20Z</time>
      </trkpt>
      <trkpt lat="43.87111" lon="2.44443">
        <ele>495.076</ele>
        <time>2016-06-10T10:34:40Z</time>
      </trkpt>
      <trkpt lat="43.87159" lon="2.44465">
        <ele>514.055</ele>
        <time>2016-06-10T10:35:00Z</time>
      </trkpt>
      <trkpt lat="43.87162" lon="2.44435">
        <ele>520.092</ele>
        <time>2016-06-10T10:35:20Z</time>
      </trkpt>
      <trkpt lat="43.87191" lon="2.44375">
        <ele>528.097</ele>
        <time>2016-06-10T10:35:40Z</time>
      </trkpt>
      <trkpt lat="43.87202" lon="2.4442">
        <ele>534.033</ele>
        <time>2016-06-10T10:36:00Z</time>
      </trkpt>
      <trkpt lat="43.87239" lon="2.44355">
        <ele>542.71</ele>
        <time>2016-06-10T10:36:40Z</time>
      </trkpt>
      <trkpt lat="43.87272" lon="2.44344">
        <ele>555.953</ele>
        <time>2016-06-10T10:37:00Z</time>
      </trkpt>
      <trkpt lat="43.87292" lon="2.44381">
        <ele>560.855</ele>
        <time>2016-06-10T10:37:20Z</time>
      </trkpt>
      <trkpt lat="43.87309" lon="2.44342">
        <ele>566.848</ele>
        <time>2016-06-10T10:37:40Z</time>
      </trkpt>
      <trkpt lat="43.8736" lon="2.44272">
        <ele>588.661</ele>
        <time>2016-06-10T10:38:00Z</time>
      </trkpt>
      <trkpt lat="43.87366" lon="2.44147">
        <ele>587.917</ele>
        <time>2016-06-10T10:38:20Z</time>
      </trkpt>
      <trkpt lat="43.87433" lon="2.43975">
        <ele>605.808</ele>
        <time>2016-06-10T10:38:40Z</time>
      </trkpt>
      <trkpt lat="43.87487" lon="2.43789">
        <ele>621.958</ele>
        <time>2016-06-10T10:39:00Z</time>
      </trkpt>
      <trkpt lat="43.87501" lon="2.43673">
        <ele>625.097</ele>
        <time>2016-06-10T10:39:20Z</time>
      </trkpt>
      <trkpt lat="43.87465" lon="2.43701">
        <ele>626.034</ele>
        <time>2016-06-10T10:39:40Z</time>
      </trkpt>
      <trkpt lat="43.87422" lon="2.43814">
        <ele>623.559</ele>
        <time>2016-06-10T10:40:00Z</time>
      </trkpt>
      <trkpt lat="43.87383" lon="2.43859">
        <ele>622.445</ele>
        <time>2016-06-10T10:40:20Z</time>
      </trkpt>
      <trkpt lat="43.87339" lon="2.43874">
        <ele>622.182</ele>
        <time>2016-06-10T10:40:40Z</time>
      </trkpt>
      <trkpt lat="43.87194" lon="2.43784">
        <ele>614.575</ele>
        <time>2016-06-10T10:41:00Z</time>
      </trkpt>
      <trkpt lat="43.87135" lon="2.43685">
        <ele>612.087</ele>
        <time>2016-06-10T10:41:40Z</time>
      </trkpt>
      <trkpt lat="43.87079" lon="2.43651">
        <ele>609.027</ele>
        <time>2016-06-10T10:42:40Z</time>
      </trkpt>
      <trkpt lat="43.86997" lon="2.43555">
        <ele>604.568</ele>
        <time>2016-06-10T10:43:00Z</time>
      </trkpt>
      <trkpt lat="43.86862" lon="2.43516">
        <ele>604.914</ele>
        <time>2016-06-10T10:43:20Z</time>
      </trkpt>
      <trkpt lat="43.86993" lon="2.43435">
        <ele>612.108</ele>
        <time>2016-06-10T10:43:40Z</time>
      </trkpt>
      <trkpt lat="43.87148" lon="2.43456">
        <ele>615.026</ele>
        <time>2016-06-10T10:44:00Z</time>
      </trkpt>
      <trkpt lat="43.8702" lon="2.43231">
        <ele>612.345</ele>
        <time>2016-06-10T10:44:20Z</time>
      </trkpt>
      <trkpt lat="43.86972" lon="2.43055">
        <ele>620.012</ele>
        <time>2016-06-10T10:44:40Z</time>
      </trkpt>
      <trkpt lat="43.86884" lon="2.42903">
        <ele>622.437</ele>
        <time>2016-06-10T10:45:00Z</time>
      </trkpt>
      <trkpt lat="43.86789" lon="2.42836">
        <ele>618.773</ele>
        <time>2016-06-10T10:45:20Z</time>
      </trkpt>
      <trkpt lat="43.86707" lon="2.42819">
        <ele>615.46</ele>
        <time>2016-06-10T10:46:00Z</time>
      </trkpt>
      <trkpt lat="43.86658" lon="2.4278">
        <ele>611.583</ele>
        <time>2016-06-10T10:46:20Z</time>
      </trkpt>
      <trkpt lat="43.86625" lon="2.4269">
        <ele>609.465</ele>
        <time>2016-06-10T10:46:40Z</time>
      </trkpt>
      <trkpt lat="43.86536" lon="2.42525">
        <ele>597.174</ele>
        <time>2016-06-10T10:47:00Z</time>
      </trkpt>
      <trkpt lat="43.86452" lon="2.4243">
        <ele>595.056</ele>
        <time>2016-06-10T10:47:20Z</time>
      </trkpt>
      <trkpt lat="43.8637" lon="2.4243">
        <ele>592.021</ele>
        <time>2016-06-10T10:47:40Z</time>
      </trkpt>
      <trkpt lat="43.86364" lon="2.42403">
        <ele>592.108</ele>
        <time>2016-06-10T10:48:00Z</time>
      </trkpt>
      <trkpt lat="43.86362" lon="2.42327">
        <ele>589.661</ele>
        <time>2016-06-10T10:48:20Z</time>
      </trkpt>
      <trkpt lat="43.86333" lon="2.42264">
        <ele>584.95</ele>
        <time>2016-06-10T10:48:40Z</time>
      </trkpt>
      <trkpt lat="43.86282" lon="2.4219">
        <ele>579.777</ele>
        <time>2016-06-10T10:49:00Z</time>
      </trkpt>
      <trkpt lat="43.86192" lon="2.41978">
        <ele>554.212</ele>
        <time>2016-06-10T10:49:20Z</time>
      </trkpt>
      <trkpt lat="43.86174" lon="2.41952">
        <ele>551.828</ele>
        <time>2016-06-10T10:49:40Z</time>
      </trkpt>
      <trkpt lat="43.86144" lon="2.41883">
        <ele>544.735</ele>
        <time>2016-06-10T10:50:00Z</time>
      </trkpt>
      <trkpt lat="43.86144" lon="2.41789">
        <ele>540.278</ele>
        <time>2016-06-10T10:50:20Z</time>
      </trkpt>
      <trkpt lat="43.86174" lon="2.41714">
        <ele>532.18</ele>
        <time>2016-06-10T10:50:40Z</time>
      </trkpt>
      <trkpt lat="43.86093" lon="2.4166">
        <ele>522.443</ele>
        <time>2016-06-10T10:51:00Z</time>
      </trkpt>
      <trkpt lat="43.86042" lon="2.41626">
        <ele>517.364</ele>
        <time>2016-06-10T10:51:20Z</time>
      </trkpt>
      <trkpt lat="43.85777" lon="2.41551">
        <ele>491.61</ele>
        <time>2016-06-10T10:51:40Z</time>
      </trkpt>
      <trkpt lat="43.8588" lon="2.41624">
        <ele>486.608</ele>
        <time>2016-06-10T10:52:00Z</time>
      </trkpt>
      <trkpt lat="43.85972" lon="2.41737">
        <ele>486.388</ele>
        <time>2016-06-10T10:52:20Z</time>
      </trkpt>
      <trkpt lat="43.85923" lon="2.41707">
        <ele>477.177</ele>
        <time>2016-06-10T10:52:40Z</time>
      </trkpt>
      <trkpt lat="43.85959" lon="2.41763">
        <ele>477.784</ele>
        <time>2016-06-10T10:53:00Z</time>
      </trkpt>
      <trkpt lat="43.85969" lon="2.41838">
        <ele>471.249</ele>
        <time>2016-06-10T10:53:20Z</time>
      </trkpt>
      <trkpt lat="43.85989" lon="2.41899">
        <ele>473.075</ele>
        <time>2016-06-10T10:53:40Z</time>
      </trkpt>
      <trkpt lat="43.85914" lon="2.41939">
        <ele>466.322</ele>
        <time>2016-06-10T10:54:00Z</time>
      </trkpt>
      <trkpt lat="43.85875" lon="2.41885">
        <ele>472.415</ele>
        <time>2016-06-10T10:54:20Z</time>
      </trkpt>
      <trkpt lat="43.85783" lon="2.41844">
        <ele>480.417</ele>
        <time>2016-06-10T10:54:40Z</time>
      </trkpt>
      <trkpt lat="43.85668" lon="2.41845">
        <ele>492.019</ele>
        <time>2016-06-10T10:55:00Z</time>
      </trkpt>
      <trkpt lat="43.85607" lon="2.41885">
        <ele>498.909</ele>
        <time>2016-06-10T10:55:40Z</time>
      </trkpt>
      <trkpt lat="43.85556" lon="2.41965">
        <ele>512.919</ele>
        <time>2016-06-10T10:56:00Z</time>
      </trkpt>
      <trkpt lat="43.85445" lon="2.4207">
        <ele>519.208</ele>
        <time>2016-06-10T10:56:20Z</time>
      </trkpt>
      <trkpt lat="43.85377" lon="2.42177">
        <ele>531.275</ele>
        <time>2016-06-10T10:56:40Z</time>
      </trkpt>
      <trkpt lat="43.85505" lon="2.42109">
        <ele>538.424</ele>
        <time>2016-06-10T10:57:00Z</time>
      </trkpt>
      <trkpt lat="43.85544" lon="2.42115">
        <ele>544.111</ele>
        <time>2016-06-10T10:57:20Z</time>
      </trkpt>
      <trkpt lat="43.85558" lon="2.42169">
        <ele>548.196</ele>
        <time>2016-06-10T10:57:40Z</time>
      </trkpt>
      <trkpt lat="43.8553" lon="2.42224">
        <ele>554.182</ele>
        <time>2016-06-10T10:58:00Z</time>
      </trkpt>
      <trkpt lat="43.85499" lon="2.42238">
        <ele>559.279</ele>
        <time>2016-06-10T10:58:20Z</time>
      </trkpt>
      <trkpt lat="43.85435" lon="2.42355">
        <ele>576.722</ele>
        <time>2016-06-10T10:58:40Z</time>
      </trkpt>
      <trkpt lat="43.85397" lon="2.42454">
        <ele>587.334</ele>
        <time>2016-06-10T10:59:00Z</time>
      </trkpt>
      <trkpt lat="43.85354" lon="2.42596">
        <ele>595.995</ele>
        <time>2016-06-10T10:59:20Z</time>
      </trkpt>
      <trkpt lat="43.85346" lon="2.42752">
        <ele>604.449</ele>
        <time>2016-06-10T10:59:40Z</time>
      </trkpt>
      <trkpt lat="43.85306" lon="2.42905">
        <ele>618.123</ele>
        <time>2016-06-10T11:00:00Z</time>
      </trkpt>
      <trkpt lat="43.85239" lon="2.43046">
        <ele>627.108</ele>
        <time>2016-06-10T11:00:20Z</time>
      </trkpt>
      <trkpt lat="43.85107" lon="2.43186">
        <ele>643.333</ele>
        <time>2016-06-10T11:00:40Z</time>
      </trkpt>
      <trkpt lat="43.85008" lon="2.43222">
        <ele>646.722</ele>
        <time>2016-06-10T11:01:00Z</time>
      </trkpt>
      <trkpt lat="43.84869" lon="2.43181">
        <ele>650.089</ele>
        <time>2016-06-10T11:01:20Z</time>
      </trkpt>
      <trkpt lat="43.84914" lon="2.43061">
        <ele>650.084</ele>
        <time>2016-06-10T11:01:40Z</time>
      </trkpt>
      <trkpt lat="43.84916" lon="2.42982">
        <ele>650.07</ele>
        <time>2016-06-10T11:02:00Z</time>
      </trkpt>
      <trkpt lat="43.84913" lon="2.42939">
        <ele>650.017</ele>
        <time>2016-06-10T11:02:20Z</time>
      </trkpt>
      <trkpt lat="43.84869" lon="2.4289">
        <ele>648.63</ele>
        <time>2016-06-10T11:02:40Z</time>
      </trkpt>
      <trkpt lat="43.84792" lon="2.42905">
        <ele>645.092</ele>
        <time>2016-06-10T11:03:00Z</time>
      </trkpt>
      <trkpt lat="43.84789" lon="2.4284">
        <ele>645.051</ele>
        <time>2016-06-10T11:03:20Z</time>
      </trkpt>
      <trkpt lat="43.84733" lon="2.42636">
        <ele>635.001</ele>
        <time>2016-06-10T11:03:40Z</time>
      </trkpt>
      <trkpt lat="43.84704" lon="2.42624">
        <ele>633.911</ele>
        <time>2016-06-10T11:04:00Z</time>
      </trkpt>
      <trkpt lat="43.8456" lon="2.42594">
        <ele>617.208</ele>
        <time>2016-06-10T11:04:20Z</time>
      </trkpt>
      <trkpt lat="43.84402" lon="2.42604">
        <ele>595.039</ele>
        <time>2016-06-10T11:04:40Z</time>
      </trkpt>
      <trkpt lat="43.84252" lon="2.42555">
        <ele>572.098</ele>
        <time>2016-06-10T11:05:00Z</time>
      </trkpt>
      <trkpt lat="43.84269" lon="2.42413">
        <ele>566.735</ele>
        <time>2016-06-10T11:05:20Z</time>
      </trkpt>
      <trkpt lat="43.84238" lon="2.42291">
        <ele>575.78</ele>
        <time>2016-06-10T11:05:40Z</time>
      </trkpt>
      <trkpt lat="43.84213" lon="2.42392">
        <ele>580.846</ele>
        <time>2016-06-10T11:06:00Z</time>
      </trkpt>
      <trkpt lat="43.84181" lon="2.42718">
        <ele>598.793</ele>
        <time>2016-06-10T11:06:20Z</time>
      </trkpt>
      <trkpt lat="43.84179" lon="2.42845">
        <ele>603.586</ele>
        <time>2016-06-10T11:06:40Z</time>
      </trkpt>
      <trkpt lat="43.84154" lon="2.42909">
        <ele>608.028</ele>
        <time>2016-06-10T11:07:00Z</time>
      </trkpt>
      <trkpt lat="43.84095" lon="2.42933">
        <ele>618.471</ele>
        <time>2016-06-10T11:07:20Z</time>
      </trkpt>
      <trkpt lat="43.84032" lon="2.43018">
        <ele>620.441</ele>
        <time>2016-06-10T11:07:40Z</time>
      </trkpt>
      <trkpt lat="43.83955" lon="2.43076">
        <ele>619.515</ele>
        <time>2016-06-10T11:08:00Z</time>
      </trkpt>
      <trkpt lat="43.83871" lon="2.43186">
        <ele>624.408</ele>
        <time>2016-06-10T11:08:20Z</time>
      </trkpt>
      <trkpt lat="43.83808" lon="2.43061">
        <ele>611.441</ele>
        <time>2016-06-10T11:08:40Z</time>
      </trkpt>
      <trkpt lat="43.83753" lon="2.43031">
        <ele>603.77</ele>
        <time>2016-06-10T11:09:00Z</time>
      </trkpt>
      <trkpt lat="43.8371" lon="2.43046">
        <ele>597.117</ele>
        <time>2016-06-10T11:09:20Z</time>
      </trkpt>
      <trkpt lat="43.83684" lon="2.43093">
        <ele>591.412</ele>
        <time>2016-06-10T11:09:40Z</time>
      </trkpt>
      <trkpt lat="43.83668" lon="2.43057">
        <ele>587.428</ele>
        <time>2016-06-10T11:10:00Z</time>
      </trkpt>
      <trkpt lat="43.83674" lon="2.42943">
        <ele>574.145</ele>
        <time>2016-06-10T11:10:20Z</time>
      </trkpt>
      <trkpt lat="43.83654" lon="2.4296">
        <ele>570.748</ele>
        <time>2016-06-10T11:10:40Z</time>
      </trkpt>
      <trkpt lat="43.83609" lon="2.43059">
        <ele>564.44</ele>
        <time>2016-06-10T11:11:00Z</time>
      </trkpt>
      <trkpt lat="43.83619" lon="2.43151">
        <ele>566.422</ele>
        <time>2016-06-10T11:11:20Z</time>
      </trkpt>
      <trkpt lat="43.83568" lon="2.43162">
        <ele>550.562</ele>
        <time>2016-06-10T11:11:40Z</time>
      </trkpt>
      <trkpt lat="43.83504" lon="2.43246">
        <ele>543.008</ele>
        <time>2016-06-10T11:12:00Z</time>
      </trkpt>
      <trkpt lat="43.83458" lon="2.4325">
        <ele>533.908</ele>
        <time>2016-06-10T11:12:20Z</time>
      </trkpt>
      <trkpt lat="43.83455" lon="2.43224">
        <ele>529.276</ele>
        <time>2016-06-10T11:12:40Z</time>
      </trkpt>
      <trkpt lat="43.8338" lon="2.43239">
        <ele>517.915</ele>
        <time>2016-06-10T11:13:00Z</time>
      </trkpt>
      <trkpt lat="43.83317" lon="2.43319">
        <ele>508.342</ele>
        <time>2016-06-10T11:13:20Z</time>
      </trkpt>
      <trkpt lat="43.83315" lon="2.43368">
        <ele>504.837</ele>
        <time>2016-06-10T11:13:40Z</time>
      </trkpt>
      <trkpt lat="43.83298" lon="2.43398">
        <ele>491.973</ele>
        <time>2016-06-10T11:14:00Z</time>
      </trkpt>
      <trkpt lat="43.83312" lon="2.43497">
        <ele>489.62</ele>
        <time>2016-06-10T11:14:20Z</time>
      </trkpt>
      <trkpt lat="43.8326" lon="2.43475">
        <ele>477.893</ele>
        <time>2016-06-10T11:14:40Z</time>
      </trkpt>
      <trkpt lat="43.83187" lon="2.43495">
        <ele>476.435</ele>
        <time>2016-06-10T11:15:00Z</time>
      </trkpt>
      <trkpt lat="43.83046" lon="2.43643">
        <ele>466.688</ele>
        <time>2016-06-10T11:15:20Z</time>
      </trkpt>
      <trkpt lat="43.83012" lon="2.43647">
        <ele>461.124</ele>
        <time>2016-06-10T11:15:40Z</time>
      </trkpt>
      <trkpt lat="43.8297" lon="2.43778">
        <ele>462.926</ele>
        <time>2016-06-10T11:16:00Z</time>
      </trkpt>
      <trkpt lat="43.82945" lon="2.43742">
        <ele>459.808</ele>
        <time>2016-06-10T11:16:20Z</time>
      </trkpt>
      <trkpt lat="43.82907" lon="2.43739">
        <ele>459.812</ele>
        <time>2016-06-10T11:16:40Z</time>
      </trkpt>
      <trkpt lat="43.82871" lon="2.43752">
        <ele>461.231</ele>
        <time>2016-06-10T11:17:00Z</time>
      </trkpt>
      <trkpt lat="43.82857" lon="2.43645">
        <ele>466.068</ele>
        <time>2016-06-10T11:17:20Z</time>
      </trkpt>
      <trkpt lat="43.82857" lon="2.43645">
        <ele>466.033</ele>
        <time>2016-06-10T11:17:40Z</time>
      </trkpt>
      <trkpt lat="43.82862" lon="2.43581">
        <ele>468.069</ele>
        <time>2016-06-10T11:18:00Z</time>
      </trkpt>
      <trkpt lat="43.82975" lon="2.43398">
        <ele>454.846</ele>
        <time>2016-06-10T11:18:40Z</time>
      </trkpt>
      <trkpt lat="43.83004" lon="2.43175">
        <ele>446.259</ele>
        <time>2016-06-10T11:19:00Z</time>
      </trkpt>
      <trkpt lat="43.83085" lon="2.43074">
        <ele>438.361</ele>
        <time>2016-06-10T11:19:20Z</time>
      </trkpt>
      <trkpt lat="43.83147" lon="2.43044">
        <ele>427.481</ele>
        <time>2016-06-10T11:20:00Z</time>
      </trkpt>
      <trkpt lat="43.83269" lon="2.42765">
        <ele>412.461</ele>
        <time>2016-06-10T11:20:20Z</time>
      </trkpt>
      <trkpt lat="43.83342" lon="2.4257">
        <ele>404.617</ele>
        <time>2016-06-10T11:20:40Z</time>
      </trkpt>
      <trkpt lat="43.8327" lon="2.4246">
        <ele>403.008</ele>
        <time>2016-06-10T11:21:00Z</time>
      </trkpt>
      <trkpt lat="43.83244" lon="2.42366">
        <ele>406.452</ele>
        <time>2016-06-10T11:21:20Z</time>
      </trkpt>
      <trkpt lat="43.8326" lon="2.42278">
        <ele>409.611</ele>
        <time>2016-06-10T11:21:40Z</time>
      </trkpt>
      <trkpt lat="43.83246" lon="2.42156">
        <ele>418.828</ele>
        <time>2016-06-10T11:22:00Z</time>
      </trkpt>
      <trkpt lat="43.83207" lon="2.42051">
        <ele>431.273</ele>
        <time>2016-06-10T11:22:20Z</time>
      </trkpt>
      <trkpt lat="43.83165" lon="2.41978">
        <ele>441.849</ele>
        <time>2016-06-10T11:22:40Z</time>
      </trkpt>
      <trkpt lat="43.83185" lon="2.4187">
        <ele>455.696</ele>
        <time>2016-06-10T11:23:00Z</time>
      </trkpt>
      <trkpt lat="43.83192" lon="2.4178">
        <ele>464.769</ele>
        <time>2016-06-10T11:23:20Z</time>
      </trkpt>
      <trkpt lat="43.83239" lon="2.41658">
        <ele>482.161</ele>
        <time>2016-06-10T11:23:40Z</time>
      </trkpt>
      <trkpt lat="43.8326" lon="2.41555">
        <ele>494.312</ele>
        <time>2016-06-10T11:24:00Z</time>
      </trkpt>
      <trkpt lat="43.83277" lon="2.41491">
        <ele>494.132</ele>
        <time>2016-06-10T11:24:20Z</time>
      </trkpt>
      <trkpt lat="43.83263" lon="2.41409">
        <ele>498.105</ele>
        <time>2016-06-10T11:24:40Z</time>
      </trkpt>
      <trkpt lat="43.83201" lon="2.41315">
        <ele>527.908</ele>
        <time>2016-06-10T11:25:00Z</time>
      </trkpt>
      <trkpt lat="43.83196" lon="2.41267">
        <ele>533.445</ele>
        <time>2016-06-10T11:25:20Z</time>
      </trkpt>
      <trkpt lat="43.8326" lon="2.41134">
        <ele>537.934</ele>
        <time>2016-06-10T11:25:40Z</time>
      </trkpt>
      <trkpt lat="43.83283" lon="2.41113">
        <ele>537.631</ele>
        <time>2016-06-10T11:26:00Z</time>
      </trkpt>
      <trkpt lat="43.83304" lon="2.41044">
        <ele>546.016</ele>
        <time>2016-06-10T11:26:20Z</time>
      </trkpt>
      <trkpt lat="43.83257" lon="2.41066">
        <ele>547.652</ele>
        <time>2016-06-10T11:26:40Z</time>
      </trkpt>
      <trkpt lat="43.83173" lon="2.41132">
        <ele>557.299</ele>
        <time>2016-06-10T11:27:00Z</time>
      </trkpt>
      <trkpt lat="43.8312" lon="2.41203">
        <ele>563.792</ele>
        <time>2016-06-10T11:27:20Z</time>
      </trkpt>
      <trkpt lat="43.8306" lon="2.41351">
        <ele>572.114</ele>
        <time>2016-06-10T11:27:40Z</time>
      </trkpt>
      <trkpt lat="43.82962" lon="2.41392">
        <ele>589.451</ele>
        <time>2016-06-10T11:28:00Z</time>
      </trkpt>
      <trkpt lat="43.82911" lon="2.41424">
        <ele>592.201</ele>
        <time>2016-06-10T11:28:20Z</time>
      </trkpt>
      <trkpt lat="43.82743" lon="2.41405">
        <ele>599.611</ele>
        <time>2016-06-10T11:28:40Z</time>
      </trkpt>
      <trkpt lat="43.82743" lon="2.41405">
        <ele>599.608</ele>
        <time>2016-06-10T11:29:00Z</time>
      </trkpt>
      <trkpt lat="43.82678" lon="2.41396">
        <ele>599.989</ele>
        <time>2016-06-10T11:29:20Z</time>
      </trkpt>
      <trkpt lat="43.82661" lon="2.41377">
        <ele>600.238</ele>
        <time>2016-06-10T11:29:40Z</time>
      </trkpt>
      <trkpt lat="43.82609" lon="2.41377">
        <ele>601.745</ele>
        <time>2016-06-10T11:30:00Z</time>
      </trkpt>
      <trkpt lat="43.82548" lon="2.4134">
        <ele>602.01</ele>
        <time>2016-06-10T11:30:20Z</time>
      </trkpt>
      <trkpt lat="43.82363" lon="2.4133">
        <ele>609.496</ele>
        <time>2016-06-10T11:30:40Z</time>
      </trkpt>
      <trkpt lat="43.82255" lon="2.41435">
        <ele>610.153</ele>
        <time>2016-06-10T11:31:00Z</time>
      </trkpt>
      <trkpt lat="43.82187" lon="2.41536">
        <ele>604.176</ele>
        <time>2016-06-10T11:31:20Z</time>
      </trkpt>
      <trkpt lat="43.82148" lon="2.41521">
        <ele>605.138</ele>
        <time>2016-06-10T11:31:40Z</time>
      </trkpt>
      <trkpt lat="43.82099" lon="2.41355">
        <ele>607.398</ele>
        <time>2016-06-10T11:32:00Z</time>
      </trkpt>
      <trkpt lat="43.82053" lon="2.41301">
        <ele>600.015</ele>
        <time>2016-06-10T11:32:20Z</time>
      </trkpt>
      <trkpt lat="43.82013" lon="2.41283">
        <ele>599.426</ele>
        <time>2016-06-10T11:32:40Z</time>
      </trkpt>
      <trkpt lat="43.81964" lon="2.41317">
        <ele>600.708</ele>
        <time>2016-06-10T11:33:00Z</time>
      </trkpt>
      <trkpt lat="43.81893" lon="2.41308">
        <ele>602.543</ele>
        <time>2016-06-10T11:33:20Z</time>
      </trkpt>
      <trkpt lat="43.81832" lon="2.41411">
        <ele>596.932</ele>
        <time>2016-06-10T11:33:40Z</time>
      </trkpt>
      <trkpt lat="43.8175" lon="2.41639">
        <ele>595.049</ele>
        <time>2016-06-10T11:34:40Z</time>
      </trkpt>
      <trkpt lat="43.81704" lon="2.41594">
        <ele>593.954</ele>
        <time>2016-06-10T11:35:00Z</time>
      </trkpt>
      <trkpt lat="43.81684" lon="2.41619">
        <ele>593.82</ele>
        <time>2016-06-10T11:35:40Z</time>
      </trkpt>
      <trkpt lat="43.81598" lon="2.41662">
        <ele>591.057</ele>
        <time>2016-06-10T11:36:00Z</time>
      </trkpt>
      <trkpt lat="43.81484" lon="2.41694">
        <ele>577.99</ele>
        <time>2016-06-10T11:36:20Z</time>
      </trkpt>
      <trkpt lat="43.81439" lon="2.4166">
        <ele>565.372</ele>
        <time>2016-06-10T11:36:40Z</time>
      </trkpt>
      <trkpt lat="43.81381" lon="2.4173">
        <ele>554.978</ele>
        <time>2016-06-10T11:37:00Z</time>
      </trkpt>
      <trkpt lat="43.81338" lon="2.418">
        <ele>548.133</ele>
        <time>2016-06-10T11:37:20Z</time>
      </trkpt>
      <trkpt lat="43.81331" lon="2.41864">
        <ele>549.426</ele>
        <time>2016-06-10T11:37:40Z</time>
      </trkpt>
      <trkpt lat="43.81286" lon="2.41907">
        <ele>551.408</ele>
        <time>2016-06-10T11:38:00Z</time>
      </trkpt>
      <trkpt lat="43.81264" lon="2.41855">
        <ele>549.121</ele>
        <time>2016-06-10T11:38:20Z</time>
      </trkpt>
      <trkpt lat="43.81179" lon="2.41913">
        <ele>551.92</ele>
        <time>2016-06-10T11:38:40Z</time>
      </trkpt>
      <trkpt lat="43.81162" lon="2.41965">
        <ele>549.437</ele>
        <time>2016-06-10T11:39:00Z</time>
      </trkpt>
      <trkpt lat="43.81115" lon="2.41982">
        <ele>545.862</ele>
        <time>2016-06-10T11:39:20Z</time>
      </trkpt>
      <trkpt lat="43.81078" lon="2.42027">
        <ele>549.318</ele>
        <time>2016-06-10T11:39:40Z</time>
      </trkpt>
      <trkpt lat="43.81066" lon="2.41971">
        <ele>549.415</ele>
        <time>2016-06-10T11:40:00Z</time>
      </trkpt>
      <trkpt lat="43.8107" lon="2.41915">
        <ele>552.258</ele>
        <time>2016-06-10T11:40:20Z</time>
      </trkpt>
      <trkpt lat="43.81026" lon="2.41804">
        <ele>570.69</ele>
        <time>2016-06-10T11:40:40Z</time>
      </trkpt>
      <trkpt lat="43.81007" lon="2.41737">
        <ele>573.776</ele>
        <time>2016-06-10T11:41:00Z</time>
      </trkpt>
      <trkpt lat="43.80925" lon="2.41643">
        <ele>581.89</ele>
        <time>2016-06-10T11:41:20Z</time>
      </trkpt>
      <trkpt lat="43.80767" lon="2.41667">
        <ele>592.219</ele>
        <time>2016-06-10T11:41:40Z</time>
      </trkpt>
      <trkpt lat="43.80598" lon="2.41868">
        <ele>568.408</ele>
        <time>2016-06-10T11:42:00Z</time>
      </trkpt>
      <trkpt lat="43.80563" lon="2.41877">
        <ele>561.471</ele>
        <time>2016-06-10T11:42:20Z</time>
      </trkpt>
      <trkpt lat="43.80487" lon="2.41639">
        <ele>552.36</ele>
        <time>2016-06-10T11:42:40Z</time>
      </trkpt>
      <trkpt lat="43.80463" lon="2.41613">
        <ele>560.857</ele>
        <time>2016-06-10T11:43:00Z</time>
      </trkpt>
      <trkpt lat="43.80398" lon="2.41403">
        <ele>573.422</ele>
        <time>2016-06-10T11:43:20Z</time>
      </trkpt>
      <trkpt lat="43.80298" lon="2.41285">
        <ele>588.528</ele>
        <time>2016-06-10T11:43:40Z</time>
      </trkpt>
      <trkpt lat="43.80182" lon="2.41197">
        <ele>598.015</ele>
        <time>2016-06-10T11:44:00Z</time>
      </trkpt>
      <trkpt lat="43.80138" lon="2.41132">
        <ele>603.318</ele>
        <time>2016-06-10T11:45:20Z</time>
      </trkpt>
      <trkpt lat="43.8009" lon="2.41154">
        <ele>605.46</ele>
        <time>2016-06-10T11:46:00Z</time>
      </trkpt>
      <trkpt lat="43.80104" lon="2.41006">
        <ele>608.329</ele>
        <time>2016-06-10T11:46:20Z</time>
      </trkpt>
      <trkpt lat="43.80098" lon="2.40943">
        <ele>610.6</ele>
        <time>2016-06-10T11:46:40Z</time>
      </trkpt>
      <trkpt lat="43.80134" lon="2.40688">
        <ele>617.22</ele>
        <time>2016-06-10T11:47:00Z</time>
      </trkpt>
      <trkpt lat="43.80196" lon="2.40489">
        <ele>619.508</ele>
        <time>2016-06-10T11:47:20Z</time>
      </trkpt>
      <trkpt lat="43.80247" lon="2.40368">
        <ele>619.036</ele>
        <time>2016-06-10T11:47:40Z</time>
      </trkpt>
      <trkpt lat="43.80254" lon="2.40233">
        <ele>622.595</ele>
        <time>2016-06-10T11:48:00Z</time>
      </trkpt>
      <trkpt lat="43.8025" lon="2.40195">
        <ele>624.032</ele>
        <time>2016-06-10T11:48:20Z</time>
      </trkpt>
      <trkpt lat="43.80202" lon="2.40128">
        <ele>624.877</ele>
        <time>2016-06-10T11:48:40Z</time>
      </trkpt>
      <trkpt lat="43.80189" lon="2.40051">
        <ele>624.263</ele>
        <time>2016-06-10T11:49:00Z</time>
      </trkpt>
      <trkpt lat="43.80239" lon="2.3971">
        <ele>620.05</ele>
        <time>2016-06-10T11:49:20Z</time>
      </trkpt>
      <trkpt lat="43.80301" lon="2.39388">
        <ele>601.143</ele>
        <time>2016-06-10T11:49:40Z</time>
      </trkpt>
      <trkpt lat="43.80301" lon="2.39253">
        <ele>596.325</ele>
        <time>2016-06-10T11:50:00Z</time>
      </trkpt>
      <trkpt lat="43.80316" lon="2.39173">
        <ele>594.185</ele>
        <time>2016-06-10T11:50:20Z</time>
      </trkpt>
      <trkpt lat="43.80341" lon="2.3912">
        <ele>593.389</ele>
        <time>2016-06-10T11:50:40Z</time>
      </trkpt>
      <trkpt lat="43.80376" lon="2.39081">
        <ele>586.717</ele>
        <time>2016-06-10T11:51:00Z</time>
      </trkpt>
      <trkpt lat="43.80339" lon="2.3893">
        <ele>583.208</ele>
        <time>2016-06-10T11:51:20Z</time>
      </trkpt>
      <trkpt lat="43.80293" lon="2.3889">
        <ele>581.182</ele>
        <time>2016-06-10T11:51:40Z</time>
      </trkpt>
      <trkpt lat="43.80319" lon="2.38205">
        <ele>559.011</ele>
        <time>2016-06-10T11:52:00Z</time>
      </trkpt>
      <trkpt lat="43.80333" lon="2.38076">
        <ele>558.078</ele>
        <time>2016-06-10T11:52:20Z</time>
      </trkpt>
      <trkpt lat="43.8018" lon="2.38231">
        <ele>560.013</ele>
        <time>2016-06-10T11:52:40Z</time>
      </trkpt>
      <trkpt lat="43.8014" lon="2.3825">
        <ele>563.929</ele>
        <time>2016-06-10T11:53:00Z</time>
      </trkpt>
      <trkpt lat="43.80151" lon="2.38102">
        <ele>564.176</ele>
        <time>2016-06-10T11:53:20Z</time>
      </trkpt>
      <trkpt lat="43.80143" lon="2.38014">
        <ele>568.939</ele>
        <time>2016-06-10T11:53:40Z</time>
      </trkpt>
      <trkpt lat="43.80106" lon="2.37884">
        <ele>575.071</ele>
        <time>2016-06-10T11:54:00Z</time>
      </trkpt>
      <trkpt lat="43.80095" lon="2.37806">
        <ele>578.011</ele>
        <time>2016-06-10T11:54:20Z</time>
      </trkpt>
      <trkpt lat="43.80098" lon="2.37669">
        <ele>581.921</ele>
        <time>2016-06-10T11:54:40Z</time>
      </trkpt>
      <trkpt lat="43.80089" lon="2.37504">
        <ele>577.403</ele>
        <time>2016-06-10T11:55:00Z</time>
      </trkpt>
      <trkpt lat="43.801" lon="2.37392">
        <ele>575.108</ele>
        <time>2016-06-10T11:55:20Z</time>
      </trkpt>
      <trkpt lat="43.80117" lon="2.37343">
        <ele>575.085</ele>
        <time>2016-06-10T11:55:40Z</time>
      </trkpt>
      <trkpt lat="43.80166" lon="2.37291">
        <ele>572.184</ele>
        <time>2016-06-10T11:56:00Z</time>
      </trkpt>
      <trkpt lat="43.80186" lon="2.37169">
        <ele>566.791</ele>
        <time>2016-06-10T11:56:20Z</time>
      </trkpt>
      <trkpt lat="43.80208" lon="2.3692">
        <ele>557.586</ele>
        <time>2016-06-10T11:56:40Z</time>
      </trkpt>
      <trkpt lat="43.80254" lon="2.37017">
        <ele>555.492</ele>
        <time>2016-06-10T11:57:00Z</time>
      </trkpt>
      <trkpt lat="43.80313" lon="2.37188">
        <ele>547.759</ele>
        <time>2016-06-10T11:57:20Z</time>
      </trkpt>
      <trkpt lat="43.80411" lon="2.36884">
        <ele>536.172</ele>
        <time>2016-06-10T11:57:40Z</time>
      </trkpt>
      <trkpt lat="43.80429" lon="2.36841">
        <ele>533.424</ele>
        <time>2016-06-10T11:58:00Z</time>
      </trkpt>
      <trkpt lat="43.80474" lon="2.36527">
        <ele>505.819</ele>
        <time>2016-06-10T11:58:20Z</time>
      </trkpt>
      <trkpt lat="43.80502" lon="2.3648">
        <ele>501.009</ele>
        <time>2016-06-10T11:58:40Z</time>
      </trkpt>
      <trkpt lat="43.80541" lon="2.36459">
        <ele>495.119</ele>
        <time>2016-06-10T11:59:00Z</time>
      </trkpt>
      <trkpt lat="43.80626" lon="2.3642">
        <ele>481.208</ele>
        <time>2016-06-10T11:59:20Z</time>
      </trkpt>
      <trkpt lat="43.80625" lon="2.36253">
        <ele>470.395</ele>
        <time>2016-06-10T11:59:40Z</time>
      </trkpt>
      <trkpt lat="43.8059" lon="2.36111">
        <ele>465.054</ele>
        <time>2016-06-10T12:00:00Z</time>
      </trkpt>
      <trkpt lat="43.80521" lon="2.35974">
        <ele>456.381</ele>
        <time>2016-06-10T12:00:20Z</time>
      </trkpt>
      <trkpt lat="43.80465" lon="2.35886">
        <ele>453.056</ele>
        <time>2016-06-10T12:00:40Z</time>
      </trkpt>
      <trkpt lat="43.8046" lon="2.35824">
        <ele>447.912</ele>
        <time>2016-06-10T12:01:00Z</time>
      </trkpt>
      <trkpt lat="43.80488" lon="2.35824">
        <ele>445.069</ele>
        <time>2016-06-10T12:01:20Z</time>
      </trkpt>
      <trkpt lat="43.80467" lon="2.35684">
        <ele>436.342</ele>
        <time>2016-06-10T12:01:40Z</time>
      </trkpt>
      <trkpt lat="43.80452" lon="2.35539">
        <ele>432.064</ele>
        <time>2016-06-10T12:02:00Z</time>
      </trkpt>
      <trkpt lat="43.8038" lon="2.35356">
        <ele>415.539</ele>
        <time>2016-06-10T12:02:20Z</time>
      </trkpt>
      <trkpt lat="43.80498" lon="2.35279">
        <ele>406.401</ele>
        <time>2016-06-10T12:02:40Z</time>
      </trkpt>
      <trkpt lat="43.80449" lon="2.35221">
        <ele>399.121</ele>
        <time>2016-06-10T12:03:00Z</time>
      </trkpt>
      <trkpt lat="43.80436" lon="2.35151">
        <ele>382.608</ele>
        <time>2016-06-10T12:03:20Z</time>
      </trkpt>
      <trkpt lat="43.80413" lon="2.351">
        <ele>375.987</ele>
        <time>2016-06-10T12:03:40Z</time>
      </trkpt>
      <trkpt lat="43.80406" lon="2.35051">
        <ele>367.186</ele>
        <time>2016-06-10T12:04:00Z</time>
      </trkpt>
      <trkpt lat="43.80371" lon="2.35008">
        <ele>366.183</ele>
        <time>2016-06-10T12:04:20Z</time>
      </trkpt>
      <trkpt lat="43.80307" lon="2.34995">
        <ele>372.268</ele>
        <time>2016-06-10T12:05:00Z</time>
      </trkpt>
      <trkpt lat="43.80244" lon="2.3494">
        <ele>363.214</ele>
        <time>2016-06-10T12:05:20Z</time>
      </trkpt>
      <trkpt lat="43.80225" lon="2.3486">
        <ele>342.681</ele>
        <time>2016-06-10T12:05:40Z</time>
      </trkpt>
      <trkpt lat="43.80222" lon="2.34635">
        <ele>333.024</ele>
        <time>2016-06-10T12:06:00Z</time>
      </trkpt>
      <trkpt lat="43.80205" lon="2.34583">
        <ele>332.176</ele>
        <time>2016-06-10T12:06:20Z</time>
      </trkpt>
      <trkpt lat="43.80158" lon="2.3454">
        <ele>325.043</ele>
        <time>2016-06-10T12:06:40Z</time>
      </trkpt>
      <trkpt lat="43.80117" lon="2.3457">
        <ele>324.364</ele>
        <time>2016-06-10T12:07:00Z</time>
      </trkpt>
      <trkpt lat="43.80079" lon="2.34647">
        <ele>333.51</ele>
        <time>2016-06-10T12:07:20Z</time>
      </trkpt>
      <trkpt lat="43.80025" lon="2.34723">
        <ele>325.208</ele>
        <time>2016-06-10T12:07:40Z</time>
      </trkpt>
      <trkpt lat="43.80016" lon="2.34811">
        <ele>330.168</ele>
        <time>2016-06-10T12:08:00Z</time>
      </trkpt>
      <trkpt lat="43.79994" lon="2.34849">
        <ele>324.577</ele>
        <time>2016-06-10T12:08:20Z</time>
      </trkpt>
      <trkpt lat="43.79985" lon="2.34946">
        <ele>325.744</ele>
        <time>2016-06-10T12:08:40Z</time>
      </trkpt>
      <trkpt lat="43.79963" lon="2.35019">
        <ele>325.739</ele>
        <time>2016-06-10T12:09:00Z</time>
      </trkpt>
      <trkpt lat="43.79923" lon="2.35088">
        <ele>330.045</ele>
        <time>2016-06-10T12:09:20Z</time>
      </trkpt>
      <trkpt lat="43.79844" lon="2.35122">
        <ele>319.842</ele>
        <time>2016-06-10T12:09:40Z</time>
      </trkpt>
      <trkpt lat="43.79794" lon="2.35096">
        <ele>316.695</ele>
        <time>2016-06-10T12:10:00Z</time>
      </trkpt>
      <trkpt lat="43.79782" lon="2.35154">
        <ele>318.127</ele>
        <time>2016-06-10T12:10:20Z</time>
      </trkpt>
      <trkpt lat="43.7977" lon="2.35154">
        <ele>319.872</ele>
        <time>2016-06-10T12:10:40Z</time>
      </trkpt>
      <trkpt lat="43.7975" lon="2.3512">
        <ele>320.013</ele>
        <time>2016-06-10T12:11:00Z</time>
      </trkpt>
      <trkpt lat="43.79686" lon="2.35111">
        <ele>328.814</ele>
        <time>2016-06-10T12:12:20Z</time>
      </trkpt>
      <trkpt lat="43.79627" lon="2.35066">
        <ele>330.008</ele>
        <time>2016-06-10T12:12:40Z</time>
      </trkpt>
      <trkpt lat="43.79609" lon="2.35025">
        <ele>323.991</ele>
        <time>2016-06-10T12:13:00Z</time>
      </trkpt>
      <trkpt lat="43.7955" lon="2.3497">
        <ele>326.91</ele>
        <time>2016-06-10T12:13:20Z</time>
      </trkpt>
      <trkpt lat="43.79499" lon="2.34854">
        <ele>329.617</ele>
        <time>2016-06-10T12:13:40Z</time>
      </trkpt>
      <trkpt lat="43.79489" lon="2.34749">
        <ele>321.832</ele>
        <time>2016-06-10T12:14:00Z</time>
      </trkpt>
      <trkpt lat="43.79469" lon="2.34601">
        <ele>311.878</ele>
        <time>2016-06-10T12:14:20Z</time>
      </trkpt>
      <trkpt lat="43.79438" lon="2.3451">
        <ele>312.365</ele>
        <time>2016-06-10T12:14:40Z</time>
      </trkpt>
      <trkpt lat="43.79468" lon="2.3439">
        <ele>301.898</ele>
        <time>2016-06-10T12:15:00Z</time>
      </trkpt>
      <trkpt lat="43.79474" lon="2.34231">
        <ele>299.85</ele>
        <time>2016-06-10T12:15:20Z</time>
      </trkpt>
      <trkpt lat="43.79409" lon="2.34171">
        <ele>313.371</ele>
        <time>2016-06-10T12:15:40Z</time>
      </trkpt>
      <trkpt lat="43.79407" lon="2.34137">
        <ele>305.441</ele>
        <time>2016-06-10T12:16:00Z</time>
      </trkpt>
      <trkpt lat="43.79381" lon="2.34154">
        <ele>323.415</ele>
        <time>2016-06-10T12:16:20Z</time>
      </trkpt>
      <trkpt lat="43.79314" lon="2.34135">
        <ele>338.308</ele>
        <time>2016-06-10T12:17:00Z</time>
      </trkpt>
      <trkpt lat="43.79246" lon="2.34068">
        <ele>347.421</ele>
        <time>2016-06-10T12:17:20Z</time>
      </trkpt>
      <trkpt lat="43.79214" lon="2.34075">
        <ele>356.49</ele>
        <time>2016-06-10T12:17:40Z</time>
      </trkpt>
      <trkpt lat="43.79234" lon="2.34083">
        <ele>354.167</ele>
        <time>2016-06-10T12:18:00Z</time>
      </trkpt>
      <trkpt lat="43.79228" lon="2.34148">
        <ele>365.422</ele>
        <time>2016-06-10T12:18:20Z</time>
      </trkpt>
      <trkpt lat="43.79155" lon="2.34189">
        <ele>373.798</ele>
        <time>2016-06-10T12:18:40Z</time>
      </trkpt>
      <trkpt lat="43.79" lon="2.3421">
        <ele>375.885</ele>
        <time>2016-06-10T12:19:00Z</time>
      </trkpt>
      <trkpt lat="43.78964" lon="2.34174">
        <ele>370.028</ele>
        <time>2016-06-10T12:19:20Z</time>
      </trkpt>
      <trkpt lat="43.78947" lon="2.34137">
        <ele>369.59</ele>
        <time>2016-06-10T12:19:40Z</time>
      </trkpt>
      <trkpt lat="43.78956" lon="2.33931">
        <ele>387.577</ele>
        <time>2016-06-10T12:20:00Z</time>
      </trkpt>
      <trkpt lat="43.78927" lon="2.33811">
        <ele>390.961</ele>
        <time>2016-06-10T12:20:20Z</time>
      </trkpt>
      <trkpt lat="43.78826" lon="2.33732">
        <ele>404.727</ele>
        <time>2016-06-10T12:20:40Z</time>
      </trkpt>
      <trkpt lat="43.78791" lon="2.3368">
        <ele>406.608</ele>
        <time>2016-06-10T12:21:00Z</time>
      </trkpt>
      <trkpt lat="43.78716" lon="2.33661">
        <ele>410.251</ele>
        <time>2016-06-10T12:21:20Z</time>
      </trkpt>
      <trkpt lat="43.78628" lon="2.33732">
        <ele>409.63</ele>
        <time>2016-06-10T12:21:40Z</time>
      </trkpt>
      <trkpt lat="43.78563" lon="2.33856">
        <ele>423.697</ele>
        <time>2016-06-10T12:22:00Z</time>
      </trkpt>
      <trkpt lat="43.78476" lon="2.33968">
        <ele>432.882</ele>
        <time>2016-06-10T12:22:20Z</time>
      </trkpt>
      <trkpt lat="43.78489" lon="2.34004">
        <ele>441.518</ele>
        <time>2016-06-10T12:22:40Z</time>
      </trkpt>
      <trkpt lat="43.78571" lon="2.33974">
        <ele>452.615</ele>
        <time>2016-06-10T12:23:00Z</time>
      </trkpt>
      <trkpt lat="43.78625" lon="2.33968">
        <ele>459.098</ele>
        <time>2016-06-10T12:23:20Z</time>
      </trkpt>
      <trkpt lat="43.78645" lon="2.34062">
        <ele>468.23</ele>
        <time>2016-06-10T12:23:40Z</time>
      </trkpt>
      <trkpt lat="43.786" lon="2.34174">
        <ele>480.352</ele>
        <time>2016-06-10T12:24:00Z</time>
      </trkpt>
      <trkpt lat="43.78568" lon="2.34285">
        <ele>490.853</ele>
        <time>2016-06-10T12:24:20Z</time>
      </trkpt>
      <trkpt lat="43.78479" lon="2.34433">
        <ele>508.408</ele>
        <time>2016-06-10T12:24:40Z</time>
      </trkpt>
      <trkpt lat="43.78424" lon="2.34461">
        <ele>507.308</ele>
        <time>2016-06-10T12:25:00Z</time>
      </trkpt>
      <trkpt lat="43.78371" lon="2.34513">
        <ele>506.439</ele>
        <time>2016-06-10T12:25:20Z</time>
      </trkpt>
      <trkpt lat="43.78239" lon="2.34487">
        <ele>511.898</ele>
        <time>2016-06-10T12:25:40Z</time>
      </trkpt>
      <trkpt lat="43.78208" lon="2.34534">
        <ele>511.525</ele>
        <time>2016-06-10T12:26:00Z</time>
      </trkpt>
    </trkseg>
  </trk>
</gpx>